Observation data for Colorado City on 12/06/2017      Previous  Date       Current Mesonet Observations  Soil Data  Daily Summary Page  Observations in Plain Language
KCO2 060600Z 05003KT 05/M09 A3035 RMK A01 T00501086  RH  037%=      5-min Rain = 0
KCO2 060601Z 06003KT 05/M09 A3035 RMK A01 T00501087  RH  036%=      5-min Rain = 0
KCO2 060602Z 06003KT 05/M09 A3035 RMK A01 T00501088  RH  036%=      5-min Rain = 0
KCO2 060603Z 06003KT 05/M09 A3035 RMK A01 T00501088  RH  036%=      5-min Rain = 0
KCO2 060604Z 06003KT 05/M09 A3035 RMK A01 T00501089  RH  036%=      5-min Rain = 0
KCO2 060605Z 06003KT 05/M09 A3035 RMK A01 T00501089  RH  036%=      5-min Rain = 0
KCO2 060606Z 06003KT 05/M09 A3035 RMK A01 T00501090  RH  035%=      5-min Rain = 0
KCO2 060607Z 05003KT 05/M09 A3035 RMK A01 T00501091  RH  035%=      5-min Rain = 0
KCO2 060608Z 05003KT 05/M09 A3035 RMK A01 T00501090  RH  035%=      5-min Rain = 0
KCO2 060609Z 05003KT 05/M09 A3035 RMK A01 T00501091  RH  035%=      5-min Rain = 0
KCO2 060610Z 05003KT 05/M09 A3035 RMK A01 T00501091  RH  035%=      5-min Rain = 0
KCO2 060611Z 06003KT 05/M09 A3035 RMK A01 T00501090  RH  036%=      5-min Rain = 0
KCO2 060612Z 06003KT 05/M09 A3035 RMK A01 T00501091  RH  035%=      5-min Rain = 0
KCO2 060613Z 05003KT 05/M09 A3035 RMK A01 T00501091  RH  035%=      5-min Rain = 0
KCO2 060614Z 05003KT 05/M09 A3035 RMK A01 T00501091  RH  035%=      5-min Rain = 0
KCO2 060615Z 05003KT 05/M09 A3035 RMK A01 T00501091  RH  035%=      5-min Rain = 0
KCO2 060616Z 06004KT 05/M09 A3035 RMK A01 T00501091  RH  035%=      5-min Rain = 0
KCO2 060617Z 05003KT 05/M09 A3035 RMK A01 T00501092  RH  035%=      5-min Rain = 0
KCO2 060618Z 05003KT 05/M09 A3035 RMK A01 T00501092  RH  035%=      5-min Rain = 0
KCO2 060619Z 04003KT 05/M09 A3035 RMK A01 T00501091  RH  035%=      5-min Rain = 0
KCO2 060620Z 04003KT 05/M09 A3035 RMK A01 T00501092  RH  035%=      5-min Rain = 0
KCO2 060621Z 04003KT 05/M09 A3036 RMK A01 T00501092  RH  035%=      5-min Rain = 0
KCO2 060622Z 03003KT 05/M09 A3036 RMK A01 T00501091  RH  035%=      5-min Rain = 0
KCO2 060623Z 04003KT 05/M09 A3035 RMK A01 T00501092  RH  035%=      5-min Rain = 0
KCO2 060624Z 04003KT 05/M09 A3035 RMK A01 T00501091  RH  035%=      5-min Rain = 0
KCO2 060625Z 04003KT 05/M09 A3035 RMK A01 T00501091  RH  035%=      5-min Rain = 0
KCO2 060626Z 04003KT 05/M09 A3035 RMK A01 T00511090  RH  035%=      5-min Rain = 0
KCO2 060627Z 04003KT 05/M09 A3035 RMK A01 T00501091  RH  035%=      5-min Rain = 0
KCO2 060628Z 04002KT 05/M09 A3035 RMK A01 T00501091  RH  035%=      5-min Rain = 0
KCO2 060629Z 04003KT 05/M09 A3036 RMK A01 T00511090  RH  035%=      5-min Rain = 0
KCO2 060630Z 04003KT 05/M09 A3036 RMK A01 T00501091  RH  035%=      5-min Rain = 0
KCO2 060631Z 04002KT 05/M09 A3036 RMK A01 T00511091  RH  035%=      5-min Rain = 0
KCO2 060632Z 04002KT 05/M09 A3036 RMK A01 T00511091  RH  035%=      5-min Rain = 0
KCO2 060633Z 04002KT 05/M09 A3036 RMK A01 T00511091  RH  035%=      5-min Rain = 0
KCO2 060634Z 05002KT 05/M09 A3036 RMK A01 T00511091  RH  035%=      5-min Rain = 0
KCO2 060635Z 05002KT 05/M09 A3035 RMK A01 T00501091  RH  035%=      5-min Rain = 0
KCO2 060636Z 06001KT 05/M09 A3035 RMK A01 T00501091  RH  035%=      5-min Rain = 0
KCO2 060637Z 05002KT 05/M09 A3035 RMK A01 T00501090  RH  036%=      5-min Rain = 0
KCO2 060638Z 04002KT 05/M09 A3036 RMK A01 T00511090  RH  035%=      5-min Rain = 0
KCO2 060639Z 04002KT 05/M09 A3036 RMK A01 T00501090  RH  035%=      5-min Rain = 0
KCO2 060640Z 04002KT 05/M09 A3036 RMK A01 T00511091  RH  035%=      5-min Rain = 0
KCO2 060641Z 02002KT 05/M09 A3036 RMK A01 T00511091  RH  035%=      5-min Rain = 0
KCO2 060642Z 01002KT 05/M09 A3036 RMK A01 T00501090  RH  035%=      5-min Rain = 0
KCO2 060643Z 01002KT 05/M09 A3036 RMK A01 T00511089  RH  036%=      5-min Rain = 0
KCO2 060644Z 02002KT 05/M09 A3036 RMK A01 T00501089  RH  036%=      5-min Rain = 0
KCO2 060645Z 02002KT 05/M09 A3036 RMK A01 T00501089  RH  036%=      5-min Rain = 0
KCO2 060646Z 02001KT 05/M09 A3036 RMK A01 T00501089  RH  036%=      5-min Rain = 0
KCO2 060647Z 02001KT 05/M09 A3036 RMK A01 T00501089  RH  036%=      5-min Rain = 0
KCO2 060648Z 02002KT 05/M09 A3036 RMK A01 T00501088  RH  036%=      5-min Rain = 0
KCO2 060649Z 02002KT 05/M09 A3036 RMK A01 T00501088  RH  036%=      5-min Rain = 0
KCO2 060650Z 02002KT 05/M09 A3036 RMK A01 T00501088  RH  036%=      5-min Rain = 0
KCO2 060651Z 02002KT 05/M09 A3036 RMK A01 T00501088  RH  036%=      5-min Rain = 0
KCO2 060652Z 02003KT 05/M09 A3036 RMK A01 T00501087  RH  036%=      5-min Rain = 0
KCO2 060653Z 01003KT 05/M09 A3036 RMK A01 T00501087  RH  036%=      5-min Rain = 0
KCO2 060654Z 02003KT 05/M09 A3036 RMK A01 T00501088  RH  036%=      5-min Rain = 0
KCO2 060655Z 01003KT 05/M09 A3036 RMK A01 T00501087  RH  036%=      5-min Rain = 0
KCO2 060656Z 02003KT 05/M09 A3036 RMK A01 T00501087  RH  037%=      5-min Rain = 0
KCO2 060657Z 01003KT 05/M09 A3036 RMK A01 T00501087  RH  037%=      5-min Rain = 0
KCO2 060658Z 01002KT 05/M09 A3036 RMK A01 T00501087  RH  036%=      5-min Rain = 0
KCO2 060659Z 00002KT 05/M09 A3036 RMK A01 T00501087  RH  036%=      5-min Rain = 0
KCO2 060700Z 01002KT 05/M09 A3036 RMK A01 T00501087  RH  037%=      5-min Rain = 0
KCO2 060701Z 00002KT 05/M09 A3036 RMK A01 T00501087  RH  037%=      5-min Rain = 0
KCO2 060702Z 00002KT 05/M09 A3036 RMK A01 T00501085  RH  037%=      5-min Rain = 0
KCO2 060703Z 01002KT 05/M09 A3036 RMK A01 T00491085  RH  037%=      5-min Rain = 0
KCO2 060704Z 01003KT 05/M09 A3036 RMK A01 T00491086  RH  037%=      5-min Rain = 0
KCO2 060705Z 02002KT 05/M09 A3035 RMK A01 T00491086  RH  037%=      5-min Rain = 0
KCO2 060706Z 01003KT 05/M09 A3035 RMK A01 T00491085  RH  037%=      5-min Rain = 0
KCO2 060707Z 02002KT 05/M09 A3035 RMK A01 T00491085  RH  037%=      5-min Rain = 0
KCO2 060708Z 03003KT 05/M09 A3035 RMK A01 T00491085  RH  037%=      5-min Rain = 0
KCO2 060709Z 02002KT 05/M09 A3035 RMK A01 T00491085  RH  037%=      5-min Rain = 0
KCO2 060710Z 02003KT 05/M09 A3035 RMK A01 T00491086  RH  037%=      5-min Rain = 0
KCO2 060711Z 03003KT 05/M09 A3035 RMK A01 T00491086  RH  037%=      5-min Rain = 0
KCO2 060712Z 02003KT 05/M09 A3035 RMK A01 T00491086  RH  037%=      5-min Rain = 0
KCO2 060713Z 02003KT 05/M09 A3035 RMK A01 T00491086  RH  037%=      5-min Rain = 0
KCO2 060714Z 02003KT 05/M09 A3035 RMK A01 T00491086  RH  037%=      5-min Rain = 0
KCO2 060715Z 02003KT 05/M09 A3035 RMK A01 T00491086  RH  037%=      5-min Rain = 0
KCO2 060716Z 02003KT 05/M09 A3035 RMK A01 T00491087  RH  037%=      5-min Rain = 0
KCO2 060717Z 02003KT 05/M09 A3035 RMK A01 T00491087  RH  037%=      5-min Rain = 0
KCO2 060718Z 02003KT 05/M09 A3035 RMK A01 T00491086  RH  037%=      5-min Rain = 0
KCO2 060719Z 02003KT 05/M09 A3035 RMK A01 T00491086  RH  037%=      5-min Rain = 0
KCO2 060720Z 02003KT 05/M09 A3035 RMK A01 T00491086  RH  037%=      5-min Rain = 0
KCO2 060721Z 02003KT 05/M09 A3035 RMK A01 T00491086  RH  037%=      5-min Rain = 0
KCO2 060722Z 02003KT 05/M09 A3035 RMK A01 T00491086  RH  037%=      5-min Rain = 0
KCO2 060723Z 02004KT 05/M09 A3035 RMK A01 T00491085  RH  037%=      5-min Rain = 0
KCO2 060724Z 03004KT 05/M09 A3035 RMK A01 T00491086  RH  037%=      5-min Rain = 0
KCO2 060725Z 03003KT 05/M09 A3035 RMK A01 T00491087  RH  037%=      5-min Rain = 0
KCO2 060726Z 03003KT 05/M09 A3035 RMK A01 T00491087  RH  037%=      5-min Rain = 0
KCO2 060727Z 03004KT 05/M09 A3035 RMK A01 T00491087  RH  037%=      5-min Rain = 0
KCO2 060728Z 03003KT 05/M09 A3035 RMK A01 T00491087  RH  037%=      5-min Rain = 0
KCO2 060729Z 03003KT 05/M09 A3035 RMK A01 T00491086  RH  037%=      5-min Rain = 0
KCO2 060730Z 04003KT 05/M09 A3034 RMK A01 T00491087  RH  037%=      5-min Rain = 0
KCO2 060731Z 03003KT 05/M09 A3034 RMK A01 T00491086  RH  037%=      5-min Rain = 0
KCO2 060732Z 04003KT 05/M09 A3034 RMK A01 T00491086  RH  037%=      5-min Rain = 0
KCO2 060733Z 04003KT 05/M09 A3034 RMK A01 T00491087  RH  037%=      5-min Rain = 0
KCO2 060734Z 04003KT 05/M09 A3034 RMK A01 T00491087  RH  037%=      5-min Rain = 0
KCO2 060735Z 04003KT 05/M09 A3034 RMK A01 T00491087  RH  037%=      5-min Rain = 0
KCO2 060736Z 04003KT 05/M09 A3034 RMK A01 T00491087  RH  037%=      5-min Rain = 0
KCO2 060737Z 04004KT 05/M09 A3034 RMK A01 T00491086  RH  037%=      5-min Rain = 0
KCO2 060738Z 04004KT 05/M09 A3034 RMK A01 T00491086  RH  037%=      5-min Rain = 0
KCO2 060739Z 04003KT 05/M09 A3034 RMK A01 T00491086  RH  037%=      5-min Rain = 0
KCO2 060740Z 05004KT 05/M09 A3034 RMK A01 T00481086  RH  037%=      5-min Rain = 0
KCO2 060741Z 05003KT 05/M09 A3034 RMK A01 T00481086  RH  037%=      5-min Rain = 0
KCO2 060742Z 05003KT 05/M09 A3034 RMK A01 T00481085  RH  037%=      5-min Rain = 0
KCO2 060743Z 05003KT 05/M09 A3034 RMK A01 T00481085  RH  037%=      5-min Rain = 0
KCO2 060744Z 05003KT 05/M09 A3034 RMK A01 T00481085  RH  038%=      5-min Rain = 0
KCO2 060745Z 05004KT 05/M08 A3034 RMK A01 T00481084  RH  038%=      5-min Rain = 0
KCO2 060746Z 05003KT 05/M08 A3034 RMK A01 T00481084  RH  038%=      5-min Rain = 0
KCO2 060747Z 05003KT 05/M08 A3034 RMK A01 T00481084  RH  038%=      5-min Rain = 0
KCO2 060748Z 04003KT 05/M08 A3034 RMK A01 T00481084  RH  038%=      5-min Rain = 0
KCO2 060749Z 05003KT 05/M08 A3034 RMK A01 T00481084  RH  038%=      5-min Rain = 0
KCO2 060750Z 05003KT 05/M08 A3034 RMK A01 T00481084  RH  038%=      5-min Rain = 0
KCO2 060751Z 05003KT 05/M08 A3033 RMK A01 T00481084  RH  038%=      5-min Rain = 0
KCO2 060752Z 06003KT 05/M08 A3033 RMK A01 T00481083  RH  038%=      5-min Rain = 0
KCO2 060753Z 06003KT 05/M08 A3033 RMK A01 T00481082  RH  038%=      5-min Rain = 0
KCO2 060754Z 06003KT 05/M08 A3033 RMK A01 T00481082  RH  038%=      5-min Rain = 0
KCO2 060755Z 06003KT 05/M08 A3033 RMK A01 T00481083  RH  038%=      5-min Rain = 0
KCO2 060756Z 06004KT 05/M08 A3033 RMK A01 T00481083  RH  038%=      5-min Rain = 0
KCO2 060757Z 05003KT 05/M08 A3034 RMK A01 T00481083  RH  038%=      5-min Rain = 0
KCO2 060758Z 05003KT 05/M08 A3034 RMK A01 T00481083  RH  038%=      5-min Rain = 0
KCO2 060759Z 05003KT 05/M08 A3034 RMK A01 T00481083  RH  038%=      5-min Rain = 0
KCO2 060800Z 05004KT 05/M08 A3034 RMK A01 T00481083  RH  038%=      5-min Rain = 0
KCO2 060801Z 05004KT 05/M08 A3034 RMK A01 T00481083  RH  038%=      5-min Rain = 0
KCO2 060802Z 04004KT 05/M08 A3034 RMK A01 T00481083  RH  038%=      5-min Rain = 0
KCO2 060803Z 04005KT 05/M08 A3034 RMK A01 T00481084  RH  038%=      5-min Rain = 0
KCO2 060804Z 04004KT 05/M08 A3034 RMK A01 T00481084  RH  038%=      5-min Rain = 0
KCO2 060805Z 05004KT 05/M08 A3034 RMK A01 T00481084  RH  038%=      5-min Rain = 0
KCO2 060806Z 05004KT 05/M08 A3034 RMK A01 T00491084  RH  038%=      5-min Rain = 0
KCO2 060807Z 05004KT 05/M08 A3034 RMK A01 T00491084  RH  038%=      5-min Rain = 0
KCO2 060808Z 04005KT 05/M09 A3034 RMK A01 T00491085  RH  037%=      5-min Rain = 0
KCO2 060809Z 05005KT 05/M09 A3034 RMK A01 T00491086  RH  037%=      5-min Rain = 0
KCO2 060810Z 05005KT 05/M09 A3034 RMK A01 T00491086  RH  037%=      5-min Rain = 0
KCO2 060811Z 05005KT 05/M09 A3034 RMK A01 T00491085  RH  037%=      5-min Rain = 0
KCO2 060812Z 05005KT 05/M09 A3034 RMK A01 T00491086  RH  037%=      5-min Rain = 0
KCO2 060813Z 04004KT 05/M09 A3034 RMK A01 T00491086  RH  037%=      5-min Rain = 0
KCO2 060814Z 04003KT 05/M09 A3034 RMK A01 T00491086  RH  037%=      5-min Rain = 0
KCO2 060815Z 04004KT 05/M09 A3034 RMK A01 T00491085  RH  037%=      5-min Rain = 0
KCO2 060816Z 05004KT 05/M09 A3034 RMK A01 T00491085  RH  037%=      5-min Rain = 0
KCO2 060817Z 05004KT 05/M09 A3034 RMK A01 T00501085  RH  037%=      5-min Rain = 0
KCO2 060818Z 05003KT 05/M09 A3034 RMK A01 T00501086  RH  037%=      5-min Rain = 0
KCO2 060819Z 06003KT 05/M09 A3034 RMK A01 T00501085  RH  037%=      5-min Rain = 0
KCO2 060820Z 06003KT 05/M09 A3034 RMK A01 T00501085  RH  037%=      5-min Rain = 0
KCO2 060821Z 07003KT 05/M09 A3034 RMK A01 T00501085  RH  037%=      5-min Rain = 0
KCO2 060822Z 06002KT 05/M09 A3035 RMK A01 T00501085  RH  037%=      5-min Rain = 0
KCO2 060823Z 05001KT 05/M09 A3035 RMK A01 T00501085  RH  037%=      5-min Rain = 0
KCO2 060824Z 05001KT 05/M08 A3035 RMK A01 T00501084  RH  037%=      5-min Rain = 0
KCO2 060825Z 06001KT 05/M08 A3035 RMK A01 T00501084  RH  037%=      5-min Rain = 0
KCO2 060826Z 07002KT 05/M08 A3035 RMK A01 T00501084  RH  037%=      5-min Rain = 0
KCO2 060827Z 06001KT 05/M08 A3035 RMK A01 T00501084  RH  037%=      5-min Rain = 0
KCO2 060828Z 05001KT 05/M08 A3035 RMK A01 T00501083  RH  037%=      5-min Rain = 0
KCO2 060829Z 06001KT 05/M08 A3036 RMK A01 T00501083  RH  037%=      5-min Rain = 0
KCO2 060830Z 04002KT 05/M08 A3036 RMK A01 T00501084  RH  037%=      5-min Rain = 0
KCO2 060831Z 06002KT 05/M08 A3035 RMK A01 T00501084  RH  037%=      5-min Rain = 0
KCO2 060832Z 06002KT 05/M08 A3035 RMK A01 T00501084  RH  037%=      5-min Rain = 0
KCO2 060833Z 04002KT 05/M09 A3035 RMK A01 T00501085  RH  037%=      5-min Rain = 0
KCO2 060834Z 04001KT 05/M08 A3035 RMK A01 T00501084  RH  037%=      5-min Rain = 0
KCO2 060835Z 03002KT 05/M08 A3035 RMK A01 T00501084  RH  037%=      5-min Rain = 0
KCO2 060836Z 05002KT 05/M09 A3036 RMK A01 T00501086  RH  037%=      5-min Rain = 0
KCO2 060837Z 05003KT 05/M09 A3036 RMK A01 T00501086  RH  037%=      5-min Rain = 0
KCO2 060838Z 05003KT 05/M09 A3036 RMK A01 T00501086  RH  037%=      5-min Rain = 0
KCO2 060839Z 05003KT 05/M09 A3036 RMK A01 T00501086  RH  037%=      5-min Rain = 0
KCO2 060840Z 05002KT 05/M09 A3035 RMK A01 T00501086  RH  037%=      5-min Rain = 0
KCO2 060841Z 05002KT 05/M09 A3035 RMK A01 T00501085  RH  037%=      5-min Rain = 0
KCO2 060842Z 04002KT 05/M09 A3036 RMK A01 T00501085  RH  037%=      5-min Rain = 0
KCO2 060843Z 04002KT 05/M09 A3036 RMK A01 T00501085  RH  037%=      5-min Rain = 0
KCO2 060844Z 04002KT 05/M09 A3036 RMK A01 T00501085  RH  037%=      5-min Rain = 0
KCO2 060845Z 03001KT 05/M09 A3036 RMK A01 T00501085  RH  037%=      5-min Rain = 0
KCO2 060846Z 03001KT 05/M08 A3036 RMK A01 T00501084  RH  037%=      5-min Rain = 0
KCO2 060847Z 02002KT 05/M08 A3036 RMK A01 T00501084  RH  037%=      5-min Rain = 0
KCO2 060848Z 02002KT 05/M09 A3036 RMK A01 T00501085  RH  037%=      5-min Rain = 0
KCO2 060849Z 02001KT 05/M09 A3036 RMK A01 T00501085  RH  037%=      5-min Rain = 0
KCO2 060850Z 02001KT 05/M09 A3036 RMK A01 T00501085  RH  037%=      5-min Rain = 0
KCO2 060851Z 01001KT 05/M08 A3036 RMK A01 T00501083  RH  037%=      5-min Rain = 0
KCO2 060852Z 02001KT 05/M08 A3036 RMK A01 T00501084  RH  037%=      5-min Rain = 0
KCO2 060853Z 01001KT 05/M08 A3036 RMK A01 T00501084  RH  037%=      5-min Rain = 0
KCO2 060854Z 04001KT 05/M08 A3036 RMK A01 T00501083  RH  038%=      5-min Rain = 0
KCO2 060855Z 04001KT 05/M08 A3035 RMK A01 T00501083  RH  038%=      5-min Rain = 0
KCO2 060856Z 04001KT 05/M08 A3035 RMK A01 T00501084  RH  037%=      5-min Rain = 0
KCO2 060857Z 04001KT 05/M09 A3035 RMK A01 T00491086  RH  037%=      5-min Rain = 0
KCO2 060858Z 07001KT 05/M08 A3035 RMK A01 T00491084  RH  037%=      5-min Rain = 0
KCO2 060859Z 06001KT 05/M08 A3035 RMK A01 T00501083  RH  038%=      5-min Rain = 0
KCO2 060900Z 06002KT 05/M08 A3035 RMK A01 T00501083  RH  038%=      5-min Rain = 0
KCO2 060901Z 06001KT 05/M08 A3035 RMK A01 T00491083  RH  038%=      5-min Rain = 0
KCO2 060902Z 08002KT 05/M08 A3035 RMK A01 T00491084  RH  037%=      5-min Rain = 0
KCO2 060903Z 07003KT 05/M08 A3035 RMK A01 T00501082  RH  038%=      5-min Rain = 0
KCO2 060904Z 07002KT 05/M08 A3035 RMK A01 T00501081  RH  038%=      5-min Rain = 0
KCO2 060905Z 08002KT 05/M08 A3035 RMK A01 T00501081  RH  038%=      5-min Rain = 0
KCO2 060906Z 08002KT 05/M08 A3035 RMK A01 T00491079  RH  039%=      5-min Rain = 0
KCO2 060907Z 09002KT 05/M08 A3035 RMK A01 T00501077  RH  040%=      5-min Rain = 0
KCO2 060908Z 09002KT 05/M08 A3035 RMK A01 T00491076  RH  040%=      5-min Rain = 0
KCO2 060909Z 09002KT 05/M08 A3035 RMK A01 T00491078  RH  039%=      5-min Rain = 0
KCO2 060910Z 10002KT 05/M08 A3035 RMK A01 T00491076  RH  040%=      5-min Rain = 0
KCO2 060911Z 10003KT 05/M08 A3035 RMK A01 T00491076  RH  040%=      5-min Rain = 0
KCO2 060912Z 10003KT 05/M08 A3035 RMK A01 T00491075  RH  040%=      5-min Rain = 0
KCO2 060913Z 10003KT 05/M07 A3035 RMK A01 T00491074  RH  041%=      5-min Rain = 0
KCO2 060914Z 10003KT 05/M07 A3035 RMK A01 T00481072  RH  041%=      5-min Rain = 0
KCO2 060915Z 11003KT 05/M07 A3035 RMK A01 T00481072  RH  042%=      5-min Rain = 0
KCO2 060916Z 10003KT 05/M07 A3035 RMK A01 T00481069  RH  042%=      5-min Rain = 0
KCO2 060917Z 10003KT 05/M07 A3035 RMK A01 T00481068  RH  043%=      5-min Rain = 0
KCO2 060918Z 11003KT 05/M07 A3035 RMK A01 T00481066  RH  044%=      5-min Rain = 0
KCO2 060919Z 11003KT 05/M07 A3035 RMK A01 T00481067  RH  043%=      5-min Rain = 0
KCO2 060920Z 11003KT 05/M07 A3035 RMK A01 T00471066  RH  044%=      5-min Rain = 0
KCO2 060921Z 11003KT 05/M06 A3035 RMK A01 T00471063  RH  045%=      5-min Rain = 0
KCO2 060922Z 11003KT 05/M06 A3035 RMK A01 T00471064  RH  044%=      5-min Rain = 0
KCO2 060923Z 11003KT 05/M07 A3035 RMK A01 T00471065  RH  044%=      5-min Rain = 0
KCO2 060924Z 11003KT 05/M07 A3035 RMK A01 T00461066  RH  044%=      5-min Rain = 0
KCO2 060925Z 11003KT 05/M07 A3035 RMK A01 T00471065  RH  044%=      5-min Rain = 0
KCO2 060926Z 11003KT 05/M07 A3035 RMK A01 T00461065  RH  044%=      5-min Rain = 0
KCO2 060927Z 11004KT 05/M07 A3035 RMK A01 T00471065  RH  044%=      5-min Rain = 0
KCO2 060928Z 11004KT 05/M07 A3035 RMK A01 T00461065  RH  044%=      5-min Rain = 0
KCO2 060929Z 11004KT 05/M07 A3035 RMK A01 T00461065  RH  045%=      5-min Rain = 0
KCO2 060930Z 11004KT 05/M06 A3035 RMK A01 T00461064  RH  045%=      5-min Rain = 0
KCO2 060931Z 11004KT 05/M06 A3035 RMK A01 T00461063  RH  045%=      5-min Rain = 0
KCO2 060932Z 11004KT 05/M06 A3035 RMK A01 T00461060  RH  046%=      5-min Rain = 0
KCO2 060933Z 11004KT 05/M06 A3035 RMK A01 T00461059  RH  047%=      5-min Rain = 0
KCO2 060934Z 11004KT 05/M06 A3035 RMK A01 T00451059  RH  047%=      5-min Rain = 0
KCO2 060935Z 11004KT 05/M06 A3035 RMK A01 T00451057  RH  047%=      5-min Rain = 0
KCO2 060936Z 11004KT 05/M06 A3035 RMK A01 T00451056  RH  048%=      5-min Rain = 0
KCO2 060937Z 11004KT 05/M06 A3035 RMK A01 T00451057  RH  047%=      5-min Rain = 0
KCO2 060938Z 11004KT 05/M06 A3035 RMK A01 T00461057  RH  047%=      5-min Rain = 0
KCO2 060939Z 11004KT 05/M06 A3035 RMK A01 T00451058  RH  047%=      5-min Rain = 0
KCO2 060940Z 11004KT 05/M06 A3034 RMK A01 T00461058  RH  047%=      5-min Rain = 0
KCO2 060941Z 11004KT 05/M06 A3034 RMK A01 T00451059  RH  047%=      5-min Rain = 0
KCO2 060942Z 11004KT 05/M06 A3034 RMK A01 T00451060  RH  046%=      5-min Rain = 0
KCO2 060943Z 12004KT 05/M06 A3034 RMK A01 T00451061  RH  046%=      5-min Rain = 0
KCO2 060944Z 12004KT 05/M06 A3034 RMK A01 T00461061  RH  046%=      5-min Rain = 0
KCO2 060945Z 12004KT 05/M06 A3035 RMK A01 T00461061  RH  046%=      5-min Rain = 0
KCO2 060946Z 12004KT 05/M06 A3035 RMK A01 T00451060  RH  046%=      5-min Rain = 0
KCO2 060947Z 12003KT 05/M06 A3035 RMK A01 T00451061  RH  046%=      5-min Rain = 0
KCO2 060948Z 12003KT 05/M06 A3035 RMK A01 T00451060  RH  046%=      5-min Rain = 0
KCO2 060949Z 12004KT 05/M06 A3035 RMK A01 T00451060  RH  046%=      5-min Rain = 0
KCO2 060950Z 11004KT 05/M06 A3035 RMK A01 T00451059  RH  047%=      5-min Rain = 0
KCO2 060951Z 11004KT 05/M06 A3035 RMK A01 T00451058  RH  047%=      5-min Rain = 0
KCO2 060952Z 11004KT 05/M06 A3035 RMK A01 T00451057  RH  047%=      5-min Rain = 0
KCO2 060953Z 12004KT 05/M06 A3035 RMK A01 T00451056  RH  048%=      5-min Rain = 0
KCO2 060954Z 12004KT 05/M06 A3035 RMK A01 T00451057  RH  048%=      5-min Rain = 0
KCO2 060955Z 12004KT 05/M06 A3035 RMK A01 T00451057  RH  047%=      5-min Rain = 0
KCO2 060956Z 12004KT 05/M06 A3035 RMK A01 T00451056  RH  048%=      5-min Rain = 0
KCO2 060957Z 11004KT 05/M06 A3034 RMK A01 T00451055  RH  048%=      5-min Rain = 0
KCO2 060958Z 12005KT 05/M06 A3034 RMK A01 T00451056  RH  048%=      5-min Rain = 0
KCO2 060959Z 11005KT 05/M06 A3034 RMK A01 T00451057  RH  047%=      5-min Rain = 0
KCO2 061000Z 11004KT 05/M06 A3034 RMK A01 T00451057  RH  047%=      5-min Rain = 0
KCO2 061001Z 11005KT 05/M06 A3034 RMK A01 T00451058  RH  047%=      5-min Rain = 0
KCO2 061002Z 11005KT 05/M06 A3034 RMK A01 T00451058  RH  047%=      5-min Rain = 0
KCO2 061003Z 11005KT 05/M06 A3034 RMK A01 T00451057  RH  047%=      5-min Rain = 0
KCO2 061004Z 11005KT 05/M06 A3034 RMK A01 T00451056  RH  048%=      5-min Rain = 0
KCO2 061005Z 11005KT 05/M06 A3034 RMK A01 T00451056  RH  048%=      5-min Rain = 0
KCO2 061006Z 11005KT 04/M05 A3034 RMK A01 T00441052  RH  050%=      5-min Rain = 0
KCO2 061007Z 11004KT 04/M05 A3034 RMK A01 T00431052  RH  050%=      5-min Rain = 0
KCO2 061008Z 11004KT 04/M05 A3034 RMK A01 T00431046  RH  052%=      5-min Rain = 0
KCO2 061009Z 11004KT 04/M04 A3034 RMK A01 T00421044  RH  054%=      5-min Rain = 0
KCO2 061010Z 11004KT 04/M04 A3035 RMK A01 T00411042  RH  055%=      5-min Rain = 0
KCO2 061011Z 11005KT 04/M04 A3035 RMK A01 T00411039  RH  056%=      5-min Rain = 0
KCO2 061012Z 11005KT 04/M04 A3035 RMK A01 T00401035  RH  058%=      5-min Rain = 0
KCO2 061013Z 11005KT 04/M04 A3035 RMK A01 T00391036  RH  058%=      5-min Rain = 0
KCO2 061014Z 11005KT 04/M04 A3034 RMK A01 T00391036  RH  058%=      5-min Rain = 0
KCO2 061015Z 10005KT 04/M04 A3034 RMK A01 T00391035  RH  059%=      5-min Rain = 0
KCO2 061016Z 10005KT 04/M03 A3034 RMK A01 T00391034  RH  059%=      5-min Rain = 0
KCO2 061017Z 10005KT 04/M04 A3034 RMK A01 T00391035  RH  059%=      5-min Rain = 0
KCO2 061018Z 10005KT 04/M03 A3034 RMK A01 T00381034  RH  059%=      5-min Rain = 0
KCO2 061019Z 10005KT 04/M03 A3034 RMK A01 T00381034  RH  059%=      5-min Rain = 0
KCO2 061020Z 10005KT 04/M03 A3034 RMK A01 T00381032  RH  060%=      5-min Rain = 0
KCO2 061021Z 10005KT 04/M03 A3034 RMK A01 T00391031  RH  060%=      5-min Rain = 0
KCO2 061022Z 10005KT 04/M03 A3034 RMK A01 T00391031  RH  060%=      5-min Rain = 0
KCO2 061023Z 10005KT 04/M03 A3034 RMK A01 T00381032  RH  060%=      5-min Rain = 0
KCO2 061024Z 10004KT 04/M03 A3034 RMK A01 T00381032  RH  060%=      5-min Rain = 0
KCO2 061025Z 10004KT 04/M03 A3034 RMK A01 T00391031  RH  060%=      5-min Rain = 0
KCO2 061026Z 10005KT 04/M03 A3034 RMK A01 T00381032  RH  060%=      5-min Rain = 0
KCO2 061027Z 10005KT 04/M03 A3034 RMK A01 T00381033  RH  060%=      5-min Rain = 0
KCO2 061028Z 10005KT 04/M03 A3034 RMK A01 T00381032  RH  060%=      5-min Rain = 0
KCO2 061029Z 09005KT 04/M03 A3033 RMK A01 T00381031  RH  061%=      5-min Rain = 0
KCO2 061030Z 09005KT 04/M03 A3033 RMK A01 T00381032  RH  060%=      5-min Rain = 0
KCO2 061031Z 10005KT 04/M03 A3033 RMK A01 T00381031  RH  061%=      5-min Rain = 0
KCO2 061032Z 10005KT 04/M03 A3033 RMK A01 T00381030  RH  061%=      5-min Rain = 0
KCO2 061033Z 10005KT 04/M03 A3033 RMK A01 T00371032  RH  061%=      5-min Rain = 0
KCO2 061034Z 10005KT 04/M03 A3033 RMK A01 T00371032  RH  061%=      5-min Rain = 0
KCO2 061035Z 10005KT 04/M03 A3033 RMK A01 T00371034  RH  060%=      5-min Rain = 0
KCO2 061036Z 10003KT 04/M03 A3034 RMK A01 T00371034  RH  060%=      5-min Rain = 0
KCO2 061037Z 09003KT 04/M03 A3034 RMK A01 T00371030  RH  061%=      5-min Rain = 0
KCO2 061038Z 10004KT 04/M03 A3034 RMK A01 T00371032  RH  061%=      5-min Rain = 0
KCO2 061039Z 10004KT 04/M03 A3034 RMK A01 T00371034  RH  060%=      5-min Rain = 0
KCO2 061040Z 10004KT 04/M04 A3034 RMK A01 T00371037  RH  059%=      5-min Rain = 0
KCO2 061041Z 10003KT 04/M04 A3034 RMK A01 T00371036  RH  059%=      5-min Rain = 0
KCO2 061042Z 10004KT 04/M04 A3034 RMK A01 T00371036  RH  059%=      5-min Rain = 0
KCO2 061043Z 10003KT 04/M03 A3034 RMK A01 T00371034  RH  060%=      5-min Rain = 0
KCO2 061044Z 10003KT 04/M03 A3034 RMK A01 T00371034  RH  060%=      5-min Rain = 0
KCO2 061045Z 10003KT 04/M03 A3034 RMK A01 T00371032  RH  061%=      5-min Rain = 0
KCO2 061046Z 10002KT 04/M03 A3034 RMK A01 T00371029  RH  062%=      5-min Rain = 0
KCO2 061047Z 10003KT 04/M03 A3034 RMK A01 T00361029  RH  062%=      5-min Rain = 0
KCO2 061048Z 10003KT 04/M03 A3034 RMK A01 T00361029  RH  062%=      5-min Rain = 0
KCO2 061049Z 11003KT 04/M03 A3034 RMK A01 T00361028  RH  063%=      5-min Rain = 0
KCO2 061050Z 11004KT 04/M03 A3033 RMK A01 T00351028  RH  063%=      5-min Rain = 0
KCO2 061051Z 11004KT 04/M03 A3033 RMK A01 T00351027  RH  064%=      5-min Rain = 0
KCO2 061052Z 11004KT 03/M03 A3033 RMK A01 T00341026  RH  064%=      5-min Rain = 0
KCO2 061053Z 11004KT 03/M03 A3033 RMK A01 T00341025  RH  065%=      5-min Rain = 0
KCO2 061054Z 11004KT 03/M03 A3033 RMK A01 T00341025  RH  066%=      5-min Rain = 0
KCO2 061055Z 11004KT 03/M02 A3033 RMK A01 T00331023  RH  066%=      5-min Rain = 0
KCO2 061056Z 11004KT 03/M02 A3033 RMK A01 T00341021  RH  067%=      5-min Rain = 0
KCO2 061057Z 11005KT 03/M02 A3033 RMK A01 T00331023  RH  067%=      5-min Rain = 0
KCO2 061058Z 11005KT 03/M02 A3033 RMK A01 T00331021  RH  068%=      5-min Rain = 0
KCO2 061059Z 11005KT 03/M02 A3033 RMK A01 T00331022  RH  067%=      5-min Rain = 0
KCO2 061100Z 11005KT 03/M02 A3033 RMK A01 T00331022  RH  067%=      5-min Rain = 0
KCO2 061101Z 11005KT 03/M02 A3033 RMK A01 T00321022  RH  068%=      5-min Rain = 0
KCO2 061102Z 11005KT 03/M02 A3033 RMK A01 T00321021  RH  068%=      5-min Rain = 0
KCO2 061103Z 11005KT 03/M02 A3033 RMK A01 T00321020  RH  068%=      5-min Rain = 0
KCO2 061104Z 11005KT 03/M02 A3033 RMK A01 T00321018  RH  070%=      5-min Rain = 0
KCO2 061105Z 11005KT 03/M02 A3033 RMK A01 T00311018  RH  070%=      5-min Rain = 0
KCO2 061106Z 11005KT 03/M02 A3033 RMK A01 T00311018  RH  070%=      5-min Rain = 0
KCO2 061107Z 11005KT 03/M02 A3033 RMK A01 T00301017  RH  071%=      5-min Rain = 0
KCO2 061108Z 11004KT 03/M02 A3033 RMK A01 T00301016  RH  071%=      5-min Rain = 0
KCO2 061109Z 11003KT 03/M01 A3033 RMK A01 T00301014  RH  073%=      5-min Rain = 0
KCO2 061110Z 10003KT 03/M02 A3033 RMK A01 T00301015  RH  072%=      5-min Rain = 0
KCO2 061111Z 10002KT 03/M02 A3033 RMK A01 T00301015  RH  072%=      5-min Rain = 0
KCO2 061112Z 10002KT 03/M01 A3033 RMK A01 T00301014  RH  073%=      5-min Rain = 0
KCO2 061113Z 10002KT 03/M02 A3033 RMK A01 T00301016  RH  072%=      5-min Rain = 0
KCO2 061114Z 10002KT 03/M02 A3033 RMK A01 T00301018  RH  071%=      5-min Rain = 0
KCO2 061115Z 10002KT 03/M02 A3033 RMK A01 T00301016  RH  072%=      5-min Rain = 0
KCO2 061116Z 10002KT 03/M01 A3033 RMK A01 T00301014  RH  073%=      5-min Rain = 0
KCO2 061117Z 11002KT 03/M01 A3033 RMK A01 T00301012  RH  074%=      5-min Rain = 0
KCO2 061118Z 10002KT 03/M01 A3033 RMK A01 T00301012  RH  074%=      5-min Rain = 0
KCO2 061119Z 10002KT 03/M01 A3033 RMK A01 T00301013  RH  073%=      5-min Rain = 0
KCO2 061120Z 11002KT 03/M01 A3033 RMK A01 T00301014  RH  073%=      5-min Rain = 0
KCO2 061121Z 11002KT 03/M01 A3033 RMK A01 T00301013  RH  073%=      5-min Rain = 0
KCO2 061122Z 11002KT 03/M01 A3033 RMK A01 T00301013  RH  073%=      5-min Rain = 0
KCO2 061123Z 11003KT 03/M01 A3033 RMK A01 T00301013  RH  073%=      5-min Rain = 0
KCO2 061124Z 11003KT 03/M01 A3033 RMK A01 T00301011  RH  074%=      5-min Rain = 0
KCO2 061125Z 10003KT 03/M01 A3033 RMK A01 T00301010  RH  075%=      5-min Rain = 0
KCO2 061126Z 11002KT 03/M01 A3033 RMK A01 T00301012  RH  074%=      5-min Rain = 0
KCO2 061127Z 11002KT 03/M01 A3033 RMK A01 T00301013  RH  073%=      5-min Rain = 0
KCO2 061128Z 11002KT 03/M01 A3033 RMK A01 T00311014  RH  072%=      5-min Rain = 0
KCO2 061129Z 11003KT 03/M02 A3033 RMK A01 T00311015  RH  072%=      5-min Rain = 0
KCO2 061130Z 12003KT 03/M01 A3033 RMK A01 T00311014  RH  072%=      5-min Rain = 0
KCO2 061131Z 11003KT 03/M01 A3033 RMK A01 T00311013  RH  073%=      5-min Rain = 0
KCO2 061132Z 12003KT 03/M01 A3033 RMK A01 T00311014  RH  072%=      5-min Rain = 0
KCO2 061133Z 12003KT 03/M02 A3033 RMK A01 T00311015  RH  072%=      5-min Rain = 0
KCO2 061134Z 12003KT 03/M02 A3033 RMK A01 T00311016  RH  071%=      5-min Rain = 0
KCO2 061135Z 12003KT 03/M02 A3033 RMK A01 T00321015  RH  071%=      5-min Rain = 0
KCO2 061136Z 12003KT 03/M02 A3033 RMK A01 T00321016  RH  071%=      5-min Rain = 0
KCO2 061137Z 11003KT 03/M02 A3033 RMK A01 T00321016  RH  071%=      5-min Rain = 0
KCO2 061138Z 11003KT 03/M02 A3033 RMK A01 T00321015  RH  072%=      5-min Rain = 0
KCO2 061139Z 11003KT 03/M01 A3033 RMK A01 T00321014  RH  072%=      5-min Rain = 0
KCO2 061140Z 11003KT 03/M01 A3032 RMK A01 T00321014  RH  072%=      5-min Rain = 0
KCO2 061141Z 11003KT 03/M01 A3032 RMK A01 T00321013  RH  072%=      5-min Rain = 0
KCO2 061142Z 12004KT 03/M01 A3032 RMK A01 T00321012  RH  073%=      5-min Rain = 0
KCO2 061143Z 12003KT 03/M01 A3032 RMK A01 T00321011  RH  073%=      5-min Rain = 0
KCO2 061144Z 12004KT 03/M01 A3032 RMK A01 T00321011  RH  074%=      5-min Rain = 0
KCO2 061145Z 12004KT 03/M01 A3032 RMK A01 T00321012  RH  073%=      5-min Rain = 0
KCO2 061146Z 12003KT 03/M01 A3032 RMK A01 T00321012  RH  073%=      5-min Rain = 0
KCO2 061147Z 12003KT 03/M01 A3032 RMK A01 T00321012  RH  073%=      5-min Rain = 0
KCO2 061148Z 12003KT 03/M01 A3032 RMK A01 T00321011  RH  074%=      5-min Rain = 0
KCO2 061149Z 12003KT 03/M01 A3032 RMK A01 T00321010  RH  074%=      5-min Rain = 0
KCO2 061150Z 12002KT 03/M01 A3032 RMK A01 T00321012  RH  073%=      5-min Rain = 0
KCO2 061151Z 12003KT 03/M01 A3032 RMK A01 T00321011  RH  074%=      5-min Rain = 0
KCO2 061152Z 12003KT 03/M01 A3032 RMK A01 T00321010  RH  074%=      5-min Rain = 0
KCO2 061153Z 12003KT 03/M01 A3032 RMK A01 T00321010  RH  074%=      5-min Rain = 0
KCO2 061154Z 12003KT 03/M01 A3032 RMK A01 T00321011  RH  073%=      5-min Rain = 0
KCO2 061155Z 12003KT 03/M01 A3032 RMK A01 T00321011  RH  074%=      5-min Rain = 0
KCO2 061156Z 12003KT 03/M01 A3032 RMK A01 T00311011  RH  074%=      5-min Rain = 0
KCO2 061157Z 12003KT 03/M01 A3033 RMK A01 T00311014  RH  072%=      5-min Rain = 0
KCO2 061158Z 11002KT 03/M02 A3033 RMK A01 T00311016  RH  071%=      5-min Rain = 0
KCO2 061159Z 12002KT 03/M02 A3033 RMK A01 T00311016  RH  071%=      5-min Rain = 0
KCO2 061200Z 12002KT 03/M02 A3033 RMK A01 T00311016  RH  071%=      5-min Rain = 0
KCO2 061201Z 11002KT 03/M02 A3033 RMK A01 T00311015  RH  072%=      5-min Rain = 0
KCO2 061202Z 11001KT 03/M01 A3033 RMK A01 T00311014  RH  072%=      5-min Rain = 0
KCO2 061203Z 11002KT 03/M01 A3033 RMK A01 T00311014  RH  072%=      5-min Rain = 0
KCO2 061204Z 09002KT 03/M01 A3033 RMK A01 T00311014  RH  072%=      5-min Rain = 0
KCO2 061205Z 08002KT 03/M02 A3033 RMK A01 T00311015  RH  072%=      5-min Rain = 0
KCO2 061206Z 08002KT 03/M01 A3033 RMK A01 T00321014  RH  072%=      5-min Rain = 0
KCO2 061207Z 08002KT 03/M02 A3033 RMK A01 T00321016  RH  071%=      5-min Rain = 0
KCO2 061208Z 10002KT 03/M02 A3033 RMK A01 T00321016  RH  071%=      5-min Rain = 0
KCO2 061209Z 10002KT 03/M02 A3033 RMK A01 T00321015  RH  072%=      5-min Rain = 0
KCO2 061210Z 10003KT 03/M01 A3033 RMK A01 T00321014  RH  072%=      5-min Rain = 0
KCO2 061211Z 10003KT 03/M02 A3033 RMK A01 T00321015  RH  071%=      5-min Rain = 0
KCO2 061212Z 10003KT 03/M01 A3033 RMK A01 T00321014  RH  072%=      5-min Rain = 0
KCO2 061213Z 10003KT 03/M01 A3033 RMK A01 T00321014  RH  072%=      5-min Rain = 0
KCO2 061214Z 11003KT 03/M02 A3033 RMK A01 T00321015  RH  071%=      5-min Rain = 0
KCO2 061215Z 11003KT 03/M02 A3033 RMK A01 T00321015  RH  071%=      5-min Rain = 0
KCO2 061216Z 11002KT 03/M01 A3033 RMK A01 T00321013  RH  072%=      5-min Rain = 0
KCO2 061217Z 11002KT 03/M01 A3033 RMK A01 T00321013  RH  072%=      5-min Rain = 0
KCO2 061218Z 12002KT 03/M01 A3033 RMK A01 T00321014  RH  072%=      5-min Rain = 0
KCO2 061219Z 11002KT 03/M01 A3033 RMK A01 T00321014  RH  072%=      5-min Rain = 0
KCO2 061220Z 11002KT 03/M01 A3033 RMK A01 T00321013  RH  072%=      5-min Rain = 0
KCO2 061221Z 11002KT 03/M01 A3033 RMK A01 T00321012  RH  073%=      5-min Rain = 0
KCO2 061222Z 11002KT 03/M01 A3033 RMK A01 T00321014  RH  072%=      5-min Rain = 0
KCO2 061223Z 11002KT 03/M01 A3033 RMK A01 T00321014  RH  072%=      5-min Rain = 0
KCO2 061224Z 11002KT 03/M01 A3033 RMK A01 T00321013  RH  072%=      5-min Rain = 0
KCO2 061225Z 11002KT 03/M01 A3033 RMK A01 T00321013  RH  073%=      5-min Rain = 0
KCO2 061226Z 12003KT 03/M01 A3033 RMK A01 T00321012  RH  073%=      5-min Rain = 0
KCO2 061227Z 12003KT 03/M01 A3033 RMK A01 T00321012  RH  073%=      5-min Rain = 0
KCO2 061228Z 12003KT 03/M01 A3033 RMK A01 T00321012  RH  073%=      5-min Rain = 0
KCO2 061229Z 13003KT 03/M01 A3033 RMK A01 T00321010  RH  074%=      5-min Rain = 0
KCO2 061230Z 13003KT 03/M01 A3033 RMK A01 T00321011  RH  073%=      5-min Rain = 0
KCO2 061231Z 13002KT 03/M01 A3033 RMK A01 T00321011  RH  074%=      5-min Rain = 0
KCO2 061232Z 13002KT 03/M01 A3034 RMK A01 T00321010  RH  074%=      5-min Rain = 0
KCO2 061233Z 12002KT 03/M01 A3034 RMK A01 T00321010  RH  074%=      5-min Rain = 0
KCO2 061234Z 11002KT 03/M01 A3034 RMK A01 T00321010  RH  074%=      5-min Rain = 0
KCO2 061235Z 11003KT 03/M01 A3034 RMK A01 T00321011  RH  074%=      5-min Rain = 0
KCO2 061236Z 10002KT 03/M01 A3034 RMK A01 T00321013  RH  073%=      5-min Rain = 0
KCO2 061237Z 10002KT 03/M01 A3034 RMK A01 T00321013  RH  073%=      5-min Rain = 0
KCO2 061238Z 10002KT 03/M01 A3034 RMK A01 T00321013  RH  072%=      5-min Rain = 0
KCO2 061239Z 10002KT 03/M01 A3034 RMK A01 T00321014  RH  072%=      5-min Rain = 0
KCO2 061240Z 11002KT 03/M02 A3034 RMK A01 T00321015  RH  071%=      5-min Rain = 0
KCO2 061241Z 11002KT 03/M01 A3034 RMK A01 T00321014  RH  071%=      5-min Rain = 0
KCO2 061242Z 10002KT 03/M01 A3034 RMK A01 T00331013  RH  072%=      5-min Rain = 0
KCO2 061243Z 11002KT 03/M01 A3034 RMK A01 T00331013  RH  072%=      5-min Rain = 0
KCO2 061244Z 10002KT 03/M01 A3034 RMK A01 T00331012  RH  072%=      5-min Rain = 0
KCO2 061245Z 11003KT 03/M01 A3034 RMK A01 T00321013  RH  072%=      5-min Rain = 0
KCO2 061246Z 11003KT 03/M02 A3034 RMK A01 T00321016  RH  070%=      5-min Rain = 0
KCO2 061247Z 11003KT 03/M02 A3034 RMK A01 T00321017  RH  070%=      5-min Rain = 0
KCO2 061248Z 11003KT 03/M02 A3034 RMK A01 T00331015  RH  071%=      5-min Rain = 0
KCO2 061249Z 11003KT 03/M02 A3034 RMK A01 T00331016  RH  071%=      5-min Rain = 0
KCO2 061250Z 10003KT 03/M02 A3034 RMK A01 T00331017  RH  070%=      5-min Rain = 0
KCO2 061251Z 11002KT 03/M02 A3034 RMK A01 T00321016  RH  070%=      5-min Rain = 0
KCO2 061252Z 10003KT 03/M02 A3034 RMK A01 T00321017  RH  070%=      5-min Rain = 0
KCO2 061253Z 10003KT 03/M02 A3034 RMK A01 T00331020  RH  068%=      5-min Rain = 0
KCO2 061254Z 10003KT 03/M02 A3034 RMK A01 T00331021  RH  068%=      5-min Rain = 0
KCO2 061255Z 10003KT 03/M02 A3034 RMK A01 T00331021  RH  068%=      5-min Rain = 0
KCO2 061256Z 10004KT 03/M02 A3034 RMK A01 T00331020  RH  068%=      5-min Rain = 0
KCO2 061257Z 11003KT 03/M02 A3034 RMK A01 T00331020  RH  068%=      5-min Rain = 0
KCO2 061258Z 11003KT 03/M02 A3034 RMK A01 T00331019  RH  069%=      5-min Rain = 0
KCO2 061259Z 11004KT 03/M02 A3034 RMK A01 T00331020  RH  068%=      5-min Rain = 0
KCO2 061300Z 11004KT 03/M02 A3034 RMK A01 T00331022  RH  067%=      5-min Rain = 0
KCO2 061301Z 10003KT 03/M02 A3034 RMK A01 T00331022  RH  067%=      5-min Rain = 0
KCO2 061302Z 10003KT 03/M02 A3034 RMK A01 T00331020  RH  068%=      5-min Rain = 0
KCO2 061303Z 09003KT 03/M02 A3034 RMK A01 T00331019  RH  069%=      5-min Rain = 0
KCO2 061304Z 10004KT 03/M02 A3034 RMK A01 T00331019  RH  069%=      5-min Rain = 0
KCO2 061305Z 10003KT 03/M02 A3034 RMK A01 T00331020  RH  068%=      5-min Rain = 0
KCO2 061306Z 10003KT 03/M02 A3034 RMK A01 T00331019  RH  069%=      5-min Rain = 0
KCO2 061307Z 11003KT 03/M02 A3034 RMK A01 T00331019  RH  069%=      5-min Rain = 0
KCO2 061308Z 11003KT 03/M02 A3034 RMK A01 T00331019  RH  069%=      5-min Rain = 0
KCO2 061309Z 11003KT 03/M02 A3034 RMK A01 T00331020  RH  068%=      5-min Rain = 0
KCO2 061310Z 11003KT 03/M02 A3035 RMK A01 T00331018  RH  069%=      5-min Rain = 0
KCO2 061311Z 11003KT 03/M02 A3035 RMK A01 T00331018  RH  069%=      5-min Rain = 0
KCO2 061312Z 11002KT 03/M02 A3035 RMK A01 T00331017  RH  070%=      5-min Rain = 0
KCO2 061313Z 10002KT 03/M02 A3035 RMK A01 T00331017  RH  070%=      5-min Rain = 0
KCO2 061314Z 11002KT 03/M02 A3035 RMK A01 T00331017  RH  070%=      5-min Rain = 0
KCO2 061315Z 11002KT 03/M02 A3035 RMK A01 T00331016  RH  070%=      5-min Rain = 0
KCO2 061316Z 10003KT 03/M02 A3035 RMK A01 T00321016  RH  071%=      5-min Rain = 0
KCO2 061317Z 10003KT 03/M02 A3035 RMK A01 T00331016  RH  070%=      5-min Rain = 0
KCO2 061318Z 10003KT 03/M02 A3035 RMK A01 T00331016  RH  070%=      5-min Rain = 0
KCO2 061319Z 09003KT 03/M02 A3035 RMK A01 T00321017  RH  070%=      5-min Rain = 0
KCO2 061320Z 09003KT 03/M02 A3035 RMK A01 T00331017  RH  070%=      5-min Rain = 0
KCO2 061321Z 10003KT 03/M02 A3035 RMK A01 T00321016  RH  071%=      5-min Rain = 0
KCO2 061322Z 10003KT 03/M02 A3035 RMK A01 T00321015  RH  071%=      5-min Rain = 0
KCO2 061323Z 09002KT 03/M01 A3035 RMK A01 T00331014  RH  071%=      5-min Rain = 0
KCO2 061324Z 09002KT 03/M02 A3035 RMK A01 T00331015  RH  071%=      5-min Rain = 0
KCO2 061325Z 09002KT 03/M01 A3035 RMK A01 T00331014  RH  071%=      5-min Rain = 0
KCO2 061326Z 08002KT 03/M01 A3035 RMK A01 T00331013  RH  072%=      5-min Rain = 0
KCO2 061327Z 09002KT 03/M01 A3035 RMK A01 T00331012  RH  072%=      5-min Rain = 0
KCO2 061328Z 09002KT 03/M01 A3035 RMK A01 T00331013  RH  072%=      5-min Rain = 0
KCO2 061329Z 09002KT 03/M01 A3035 RMK A01 T00341013  RH  071%=      5-min Rain = 0
KCO2 061330Z 10002KT 03/M01 A3035 RMK A01 T00331013  RH  072%=      5-min Rain = 0
KCO2 061331Z 09002KT 03/M01 A3036 RMK A01 T00341013  RH  072%=      5-min Rain = 0
KCO2 061332Z 09002KT 03/M01 A3036 RMK A01 T00331013  RH  071%=      5-min Rain = 0
KCO2 061333Z 09001KT 03/M01 A3036 RMK A01 T00331014  RH  071%=      5-min Rain = 0
KCO2 061334Z 08002KT 03/M01 A3036 RMK A01 T00331012  RH  072%=      5-min Rain = 0
KCO2 061335Z 09002KT 03/M01 A3036 RMK A01 T00331012  RH  072%=      5-min Rain = 0
KCO2 061336Z 08002KT 03/M01 A3036 RMK A01 T00341010  RH  073%=      5-min Rain = 0
KCO2 061337Z 07002KT 03/M01 A3036 RMK A01 T00331013  RH  072%=      5-min Rain = 0
KCO2 061338Z 07002KT 03/M02 A3036 RMK A01 T00331015  RH  070%=      5-min Rain = 0
KCO2 061339Z 07002KT 03/M01 A3036 RMK A01 T00331014  RH  071%=      5-min Rain = 0
KCO2 061340Z 07002KT 03/M01 A3036 RMK A01 T00341014  RH  071%=      5-min Rain = 0
KCO2 061341Z 08002KT 03/M01 A3036 RMK A01 T00331013  RH  072%=      5-min Rain = 0
KCO2 061342Z 08002KT 03/M01 A3036 RMK A01 T00331013  RH  071%=      5-min Rain = 0
KCO2 061343Z 08002KT 03/M01 A3036 RMK A01 T00341014  RH  071%=      5-min Rain = 0
KCO2 061344Z 08002KT 03/M01 A3036 RMK A01 T00341013  RH  071%=      5-min Rain = 0
KCO2 061345Z 08002KT 03/M01 A3036 RMK A01 T00331013  RH  072%=      5-min Rain = 0
KCO2 061346Z 08002KT 03/M01 A3036 RMK A01 T00331011  RH  072%=      5-min Rain = 0
KCO2 061347Z 09002KT 03/M01 A3036 RMK A01 T00331009  RH  074%=      5-min Rain = 0
KCO2 061348Z 09002KT 03/M01 A3036 RMK A01 T00331007  RH  075%=      5-min Rain = 0
KCO2 061349Z 08003KT 03/M01 A3036 RMK A01 T00331006  RH  075%=      5-min Rain = 0
KCO2 061350Z 08003KT 03/M01 A3036 RMK A01 T00331007  RH  075%=      5-min Rain = 0
KCO2 061351Z 08003KT 03/M01 A3036 RMK A01 T00331007  RH  075%=      5-min Rain = 0
KCO2 061352Z 08003KT 03/M01 A3036 RMK A01 T00331007  RH  075%=      5-min Rain = 0
KCO2 061353Z 08003KT 03/M01 A3036 RMK A01 T00331005  RH  076%=      5-min Rain = 0
KCO2 061354Z 08003KT 03/M00 A3036 RMK A01 T00331004  RH  077%=      5-min Rain = 0
KCO2 061355Z 08003KT 03/M00 A3036 RMK A01 T00331002  RH  078%=      5-min Rain = 0
KCO2 061356Z 08003KT 03/M00 A3036 RMK A01 T00331002  RH  078%=      5-min Rain = 0
KCO2 061357Z 08002KT 03/M00 A3036 RMK A01 T00331002  RH  078%=      5-min Rain = 0
KCO2 061358Z 07002KT 03/M00 A3036 RMK A01 T00331002  RH  078%=      5-min Rain = 0
KCO2 061359Z 08002KT 03/M00 A3036 RMK A01 T00331002  RH  078%=      5-min Rain = 0
KCO2 061400Z 08002KT 03/M00 A3036 RMK A01 T00331003  RH  077%=      5-min Rain = 0
KCO2 061401Z 08002KT 03/M00 A3036 RMK A01 T00331003  RH  077%=      5-min Rain = 0
KCO2 061402Z 07002KT 03/M01 A3036 RMK A01 T00331005  RH  076%=      5-min Rain = 0
KCO2 061403Z 08003KT 03/M00 A3036 RMK A01 T00331003  RH  077%=      5-min Rain = 0
KCO2 061404Z 08002KT 03/M01 A3036 RMK A01 T00331006  RH  076%=      5-min Rain = 0
KCO2 061405Z 08003KT 03/M01 A3036 RMK A01 T00341005  RH  076%=      5-min Rain = 0
KCO2 061406Z 06002KT 03/M01 A3036 RMK A01 T00331006  RH  075%=      5-min Rain = 0
KCO2 061407Z 07003KT 03/M00 A3036 RMK A01 T00341004  RH  076%=      5-min Rain = 0
KCO2 061408Z 07003KT 03/M01 A3036 RMK A01 T00341005  RH  076%=      5-min Rain = 0
KCO2 061409Z 07004KT 03/M01 A3036 RMK A01 T00341007  RH  075%=      5-min Rain = 0
KCO2 061410Z 06003KT 03/M01 A3036 RMK A01 T00341009  RH  073%=      5-min Rain = 0
KCO2 061411Z 06004KT 03/M01 A3036 RMK A01 T00341008  RH  074%=      5-min Rain = 0
KCO2 061412Z 05004KT 03/M01 A3037 RMK A01 T00341007  RH  075%=      5-min Rain = 0
KCO2 061413Z 04007KT 03/M01 A3037 RMK A01 T00341008  RH  074%=      5-min Rain = 0
KCO2 061414Z 05006KT 03/M01 A3037 RMK A01 T00331012  RH  072%=      5-min Rain = 0
KCO2 061415Z 04007KT 03/M01 A3037 RMK A01 T00331013  RH  072%=      5-min Rain = 0
KCO2 061416Z 04007KT 03/M02 A3037 RMK A01 T00321016  RH  071%=      5-min Rain = 0
KCO2 061417Z 04006KT 03/M02 A3037 RMK A01 T00311017  RH  071%=      5-min Rain = 0
KCO2 061418Z 05006KT 03/M02 A3037 RMK A01 T00301017  RH  071%=      5-min Rain = 0
KCO2 061419Z 06006KT 03/M02 A3037 RMK A01 T00291017  RH  072%=      5-min Rain = 0
KCO2 061420Z 06006KT 03/M02 A3037 RMK A01 T00291015  RH  073%=      5-min Rain = 0
KCO2 061421Z 06006KT 03/M02 A3036 RMK A01 T00281017  RH  072%=      5-min Rain = 0
KCO2 061422Z 06007KT 03/M02 A3036 RMK A01 T00281019  RH  071%=      5-min Rain = 0
KCO2 061423Z 05007KT 03/M02 A3037 RMK A01 T00281018  RH  072%=      5-min Rain = 0
KCO2 061424Z 06007KT 03/M02 A3037 RMK A01 T00271019  RH  071%=      5-min Rain = 0
KCO2 061425Z 06006KT 03/M02 A3037 RMK A01 T00271016  RH  073%=      5-min Rain = 0
KCO2 061426Z 05007KT 03/M02 A3037 RMK A01 T00271015  RH  074%=      5-min Rain = 0
KCO2 061427Z 05007KT 03/M02 A3037 RMK A01 T00261015  RH  074%=      5-min Rain = 0
KCO2 061428Z 05006KT 03/M02 A3037 RMK A01 T00261015  RH  074%=      5-min Rain = 0
KCO2 061429Z 05007KT 03/M01 A3037 RMK A01 T00261014  RH  075%=      5-min Rain = 0
KCO2 061430Z 05006KT 03/M02 A3037 RMK A01 T00261015  RH  074%=      5-min Rain = 0
KCO2 061431Z 05006KT 03/M01 A3037 RMK A01 T00261013  RH  076%=      5-min Rain = 0
KCO2 061432Z 05005KT 03/M01 A3037 RMK A01 T00261012  RH  076%=      5-min Rain = 0
KCO2 061433Z 05006KT 03/M01 A3037 RMK A01 T00261009  RH  078%=      5-min Rain = 0
KCO2 061434Z 05006KT 03/M01 A3037 RMK A01 T00261009  RH  078%=      5-min Rain = 0
KCO2 061435Z 05006KT 03/M01 A3037 RMK A01 T00261009  RH  078%=      5-min Rain = 0
KCO2 061436Z 04005KT 03/M01 A3037 RMK A01 T00261007  RH  079%=      5-min Rain = 0
KCO2 061437Z 04006KT 03/M01 A3037 RMK A01 T00261006  RH  080%=      5-min Rain = 0
KCO2 061438Z 04006KT 03/M01 A3037 RMK A01 T00261006  RH  080%=      5-min Rain = 0
KCO2 061439Z 04007KT 03/M01 A3037 RMK A01 T00261006  RH  079%=      5-min Rain = 0
KCO2 061440Z 04007KT 03/M01 A3038 RMK A01 T00261006  RH  079%=      5-min Rain = 0
KCO2 061441Z 04006KT 03/M01 A3038 RMK A01 T00261007  RH  079%=      5-min Rain = 0
KCO2 061442Z 05005KT 03/M01 A3038 RMK A01 T00261006  RH  080%=      5-min Rain = 0
KCO2 061443Z 04005KT 03/M01 A3038 RMK A01 T00261005  RH  080%=      5-min Rain = 0
KCO2 061444Z 04005KT 03/M01 A3038 RMK A01 T00271006  RH  079%=      5-min Rain = 0
KCO2 061445Z 04005KT 03/M01 A3038 RMK A01 T00261005  RH  080%=      5-min Rain = 0
KCO2 061446Z 04004KT 03/M01 A3038 RMK A01 T00271005  RH  080%=      5-min Rain = 0
KCO2 061447Z 03005KT 03/M00 A3038 RMK A01 T00271004  RH  080%=      5-min Rain = 0
KCO2 061448Z 05005KT 03/M00 A3038 RMK A01 T00271004  RH  080%=      5-min Rain = 0
KCO2 061449Z 05006KT 03/M00 A3038 RMK A01 T00271004  RH  080%=      5-min Rain = 0
KCO2 061450Z 05005KT 03/M01 A3038 RMK A01 T00271005  RH  079%=      5-min Rain = 0
KCO2 061451Z 04005KT 03/M00 A3038 RMK A01 T00271004  RH  080%=      5-min Rain = 0
KCO2 061452Z 04004KT 03/M00 A3038 RMK A01 T00271003  RH  081%=      5-min Rain = 0
KCO2 061453Z 05004KT 03/00 A3038 RMK A01 T002800-0  RH  082%=      5-min Rain = 0
KCO2 061454Z 04004KT 03/00 A3038 RMK A01 T00280000  RH  082%=      5-min Rain = 0
KCO2 061455Z 04004KT 03/00 A3038 RMK A01 T002700-0  RH  082%=      5-min Rain = 0
KCO2 061456Z 05006KT 03/M00 A3038 RMK A01 T00281001  RH  082%=      5-min Rain = 0
KCO2 061457Z 04006KT 03/M00 A3038 RMK A01 T00281003  RH  080%=      5-min Rain = 0
KCO2 061458Z 05005KT 03/M00 A3038 RMK A01 T00281004  RH  079%=      5-min Rain = 0
KCO2 061459Z 05005KT 03/M00 A3038 RMK A01 T00281004  RH  079%=      5-min Rain = 0
KCO2 061500Z 05005KT 03/M00 A3038 RMK A01 T00281004  RH  080%=      5-min Rain = 0
KCO2 061501Z 06005KT 03/M00 A3037 RMK A01 T00281004  RH  080%=      5-min Rain = 0
KCO2 061502Z 06006KT 03/M01 A3037 RMK A01 T00281005  RH  079%=      5-min Rain = 0
KCO2 061503Z 06005KT 03/M01 A3037 RMK A01 T00281005  RH  078%=      5-min Rain = 0
KCO2 061504Z 06006KT 03/M00 A3037 RMK A01 T00291004  RH  079%=      5-min Rain = 0
KCO2 061505Z 06006KT 03/M01 A3037 RMK A01 T00281007  RH  077%=      5-min Rain = 0
KCO2 061506Z 06006KT 03/M01 A3038 RMK A01 T00281008  RH  077%=      5-min Rain = 0
KCO2 061507Z 05006KT 03/M01 A3038 RMK A01 T00291007  RH  077%=      5-min Rain = 0
KCO2 061508Z 06005KT 03/M01 A3038 RMK A01 T00291006  RH  078%=      5-min Rain = 0
KCO2 061509Z 06006KT 03/M01 A3038 RMK A01 T00291008  RH  077%=      5-min Rain = 0
KCO2 061510Z 06006KT 03/M01 A3038 RMK A01 T00291009  RH  076%=      5-min Rain = 0
KCO2 061511Z 04006KT 03/M01 A3038 RMK A01 T00291007  RH  077%=      5-min Rain = 0
KCO2 061512Z 05007KT 03/M01 A3038 RMK A01 T00291006  RH  077%=      5-min Rain = 0
KCO2 061513Z 05006KT 03/M01 A3038 RMK A01 T00301010  RH  075%=      5-min Rain = 0
KCO2 061514Z 05005KT 03/M01 A3038 RMK A01 T00291009  RH  076%=      5-min Rain = 0
KCO2 061515Z 05006KT 03/M01 A3038 RMK A01 T00291009  RH  076%=      5-min Rain = 0
KCO2 061516Z 05006KT 03/M01 A3038 RMK A01 T00291012  RH  074%=      5-min Rain = 0
KCO2 061517Z 05006KT 03/M01 A3038 RMK A01 T00291013  RH  074%=      5-min Rain = 0
KCO2 061518Z 06005KT 03/M01 A3038 RMK A01 T00291011  RH  075%=      5-min Rain = 0
KCO2 061519Z 06005KT 03/M01 A3038 RMK A01 T00301010  RH  075%=      5-min Rain = 0
KCO2 061520Z 06004KT 03/M01 A3038 RMK A01 T00291011  RH  075%=      5-min Rain = 0
KCO2 061521Z 07006KT 03/M01 A3038 RMK A01 T00301010  RH  075%=      5-min Rain = 0
KCO2 061522Z 07007KT 03/M01 A3038 RMK A01 T00291014  RH  073%=      5-min Rain = 0
KCO2 061523Z 07007KT 03/M02 A3038 RMK A01 T00301018  RH  071%=      5-min Rain = 0
KCO2 061524Z 06006KT 03/M02 A3038 RMK A01 T00291020  RH  070%=      5-min Rain = 0
KCO2 061525Z 06005KT 03/M02 A3038 RMK A01 T00291019  RH  071%=      5-min Rain = 0
KCO2 061526Z 06006KT 03/M02 A3039 RMK A01 T00291019  RH  071%=      5-min Rain = 0
KCO2 061527Z 06005KT 03/M02 A3039 RMK A01 T00291020  RH  070%=      5-min Rain = 0
KCO2 061528Z 06004KT 03/M02 A3039 RMK A01 T00291019  RH  071%=      5-min Rain = 0
KCO2 061529Z 05004KT 03/M02 A3039 RMK A01 T00291017  RH  072%=      5-min Rain = 0
KCO2 061530Z 05004KT 03/M02 A3039 RMK A01 T00291015  RH  073%=      5-min Rain = 0
KCO2 061531Z 06004KT 03/M02 A3039 RMK A01 T00291018  RH  071%=      5-min Rain = 0
KCO2 061532Z 06005KT 03/M02 A3039 RMK A01 T00291020  RH  070%=      5-min Rain = 0
KCO2 061533Z 06004KT 03/M02 A3039 RMK A01 T00291020  RH  070%=      5-min Rain = 0
KCO2 061534Z 07004KT 03/M02 A3039 RMK A01 T00291016  RH  072%=      5-min Rain = 0
KCO2 061535Z 07004KT 03/M02 A3039 RMK A01 T00301015  RH  073%=      5-min Rain = 0
KCO2 061536Z 06005KT 03/M02 A3039 RMK A01 T00301017  RH  072%=      5-min Rain = 0
KCO2 061537Z 07006KT 03/M02 A3039 RMK A01 T00301020  RH  070%=      5-min Rain = 0
KCO2 061538Z 07006KT 03/M02 A3039 RMK A01 T00301021  RH  069%=      5-min Rain = 0
KCO2 061539Z 07005KT 03/M02 A3039 RMK A01 T00301019  RH  070%=      5-min Rain = 0
KCO2 061540Z 07004KT 03/M02 A3039 RMK A01 T00301019  RH  070%=      5-min Rain = 0
KCO2 061541Z 07005KT 03/M02 A3039 RMK A01 T00301018  RH  071%=      5-min Rain = 0
KCO2 061542Z 07004KT 03/M02 A3039 RMK A01 T00301019  RH  070%=      5-min Rain = 0
KCO2 061543Z 07004KT 03/M02 A3039 RMK A01 T00301019  RH  070%=      5-min Rain = 0
KCO2 061544Z 06004KT 03/M02 A3039 RMK A01 T00301018  RH  071%=      5-min Rain = 0
KCO2 061545Z 06005KT 03/M02 A3039 RMK A01 T00301017  RH  071%=      5-min Rain = 0
KCO2 061546Z 06005KT 03/M02 A3039 RMK A01 T00311018  RH  070%=      5-min Rain = 0
KCO2 061547Z 06005KT 03/M02 A3039 RMK A01 T00311020  RH  069%=      5-min Rain = 0
KCO2 061548Z 06005KT 03/M02 A3039 RMK A01 T00311022  RH  068%=      5-min Rain = 0
KCO2 061549Z 07005KT 03/M02 A3039 RMK A01 T00311024  RH  067%=      5-min Rain = 0
KCO2 061550Z 07006KT 03/M03 A3039 RMK A01 T00301026  RH  067%=      5-min Rain = 0
KCO2 061551Z 07006KT 03/M03 A3039 RMK A01 T00301027  RH  066%=      5-min Rain = 0
KCO2 061552Z 08006KT 03/M03 A3039 RMK A01 T00301026  RH  067%=      5-min Rain = 0
KCO2 061553Z 08006KT 03/M03 A3039 RMK A01 T00301025  RH  067%=      5-min Rain = 0
KCO2 061554Z 08006KT 03/M03 A3039 RMK A01 T00301026  RH  067%=      5-min Rain = 0
KCO2 061555Z 08006KT 03/M03 A3039 RMK A01 T00301025  RH  067%=      5-min Rain = 0
KCO2 061556Z 07004KT 03/M02 A3039 RMK A01 T00311020  RH  069%=      5-min Rain = 0
KCO2 061557Z 07004KT 03/M02 A3039 RMK A01 T00311020  RH  070%=      5-min Rain = 0
KCO2 061558Z 08006KT 03/M02 A3039 RMK A01 T00311018  RH  070%=      5-min Rain = 0
KCO2 061559Z 07005KT 03/M02 A3039 RMK A01 T00311021  RH  069%=      5-min Rain = 0
KCO2 061600Z 08005KT 03/M02 A3039 RMK A01 T00311021  RH  068%=      5-min Rain = 0
KCO2 061601Z 07005KT 03/M02 A3039 RMK A01 T00311022  RH  068%=      5-min Rain = 0
KCO2 061602Z 07006KT 03/M02 A3039 RMK A01 T00311023  RH  068%=      5-min Rain = 0
KCO2 061603Z 07006KT 03/M02 A3039 RMK A01 T00311021  RH  069%=      5-min Rain = 0
KCO2 061604Z 07006KT 03/M02 A3039 RMK A01 T00311021  RH  069%=      5-min Rain = 0
KCO2 061605Z 08005KT 03/M02 A3039 RMK A01 T00311021  RH  069%=      5-min Rain = 0
KCO2 061606Z 07005KT 03/M02 A3039 RMK A01 T00311021  RH  069%=      5-min Rain = 0
KCO2 061607Z 08004KT 03/M02 A3039 RMK A01 T00311018  RH  070%=      5-min Rain = 0
KCO2 061608Z 08004KT 03/M02 A3039 RMK A01 T00311017  RH  070%=      5-min Rain = 0
KCO2 061609Z 08004KT 03/M02 A3039 RMK A01 T00321017  RH  070%=      5-min Rain = 0
KCO2 061610Z 07005KT 03/M02 A3039 RMK A01 T00321018  RH  069%=      5-min Rain = 0
KCO2 061611Z 08004KT 03/M02 A3039 RMK A01 T00321019  RH  069%=      5-min Rain = 0
KCO2 061612Z 09005KT 03/M02 A3039 RMK A01 T00321018  RH  070%=      5-min Rain = 0
KCO2 061613Z 09004KT 03/M02 A3039 RMK A01 T00321021  RH  068%=      5-min Rain = 0
KCO2 061614Z 09004KT 03/M02 A3039 RMK A01 T00321018  RH  069%=      5-min Rain = 0
KCO2 061615Z 09004KT 03/M02 A3039 RMK A01 T00331017  RH  070%=      5-min Rain = 0
KCO2 061616Z 10004KT 03/M02 A3039 RMK A01 T00331019  RH  069%=      5-min Rain = 0
KCO2 061617Z 09004KT 03/M02 A3039 RMK A01 T00331019  RH  069%=      5-min Rain = 0
KCO2 061618Z 09004KT 03/M02 A3039 RMK A01 T00321021  RH  068%=      5-min Rain = 0
KCO2 061619Z 10004KT 03/M02 A3039 RMK A01 T00321020  RH  069%=      5-min Rain = 0
KCO2 061620Z 10005KT 03/M02 A3039 RMK A01 T00321021  RH  068%=      5-min Rain = 0
KCO2 061621Z 10004KT 03/M02 A3039 RMK A01 T00321021  RH  068%=      5-min Rain = 0
KCO2 061622Z 10004KT 03/M02 A3039 RMK A01 T00321021  RH  068%=      5-min Rain = 0
KCO2 061623Z 09004KT 03/M02 A3039 RMK A01 T00321022  RH  068%=      5-min Rain = 0
KCO2 061624Z 08004KT 03/M02 A3039 RMK A01 T00321022  RH  068%=      5-min Rain = 0
KCO2 061625Z 08003KT 03/M02 A3039 RMK A01 T00321021  RH  068%=      5-min Rain = 0
KCO2 061626Z 09003KT 03/M02 A3039 RMK A01 T00321020  RH  069%=      5-min Rain = 0
KCO2 061627Z 10003KT 03/M02 A3039 RMK A01 T00321018  RH  070%=      5-min Rain = 0
KCO2 061628Z 10002KT 03/M02 A3039 RMK A01 T00321019  RH  069%=      5-min Rain = 0
KCO2 061629Z 10002KT 03/M02 A3039 RMK A01 T00321017  RH  070%=      5-min Rain = 0
KCO2 061630Z 08002KT 03/M02 A3039 RMK A01 T00321016  RH  070%=      5-min Rain = 0
KCO2 061631Z 09002KT 03/M02 A3039 RMK A01 T00331015  RH  071%=      5-min Rain = 0
KCO2 061632Z 09002KT 03/M02 A3039 RMK A01 T00331017  RH  070%=      5-min Rain = 0
KCO2 061633Z 10002KT 03/M02 A3039 RMK A01 T00331018  RH  069%=      5-min Rain = 0
KCO2 061634Z 07003KT 03/M02 A3039 RMK A01 T00331017  RH  070%=      5-min Rain = 0
KCO2 061635Z 06003KT 03/M02 A3039 RMK A01 T00331018  RH  070%=      5-min Rain = 0
KCO2 061636Z 06003KT 03/M02 A3039 RMK A01 T00331018  RH  069%=      5-min Rain = 0
KCO2 061637Z 06004KT 03/M02 A304 RMK A01 T00331016  RH  071%=      5-min Rain = 0
KCO2 061638Z 05004KT 03/M02 A304 RMK A01 T00331017  RH  070%=      5-min Rain = 0
KCO2 061639Z 04003KT 03/M02 A304 RMK A01 T00331020  RH  068%=      5-min Rain = 0
KCO2 061640Z 04003KT 03/M02 A304 RMK A01 T00331017  RH  070%=      5-min Rain = 0
KCO2 061641Z 05003KT 03/M02 A304 RMK A01 T00331016  RH  071%=      5-min Rain = 0
KCO2 061642Z 05003KT 03/M02 A304 RMK A01 T00331016  RH  071%=      5-min Rain = 0
KCO2 061643Z 04003KT 03/M01 A304 RMK A01 T00331012  RH  072%=      5-min Rain = 0
KCO2 061644Z 04004KT 03/M01 A3041 RMK A01 T00331014  RH  071%=      5-min Rain = 0
KCO2 061645Z 04004KT 03/M02 A3041 RMK A01 T00341016  RH  070%=      5-min Rain = 0
KCO2 061646Z 04004KT 03/M02 A3041 RMK A01 T00341015  RH  071%=      5-min Rain = 0
KCO2 061647Z 04005KT 03/M02 A3041 RMK A01 T00331016  RH  070%=      5-min Rain = 0
KCO2 061648Z 05004KT 03/M02 A3041 RMK A01 T00331016  RH  070%=      5-min Rain = 0
KCO2 061649Z 06004KT 03/M01 A3041 RMK A01 T00331014  RH  071%=      5-min Rain = 0
KCO2 061650Z 06004KT 03/M01 A3041 RMK A01 T00331014  RH  071%=      5-min Rain = 0
KCO2 061651Z 05003KT 03/M01 A3041 RMK A01 T00331014  RH  071%=      5-min Rain = 0
KCO2 061652Z 06004KT 03/M01 A3041 RMK A01 T00331014  RH  071%=      5-min Rain = 0
KCO2 061653Z 06003KT 03/M02 A3041 RMK A01 T00331015  RH  071%=      5-min Rain = 0
KCO2 061654Z 06003KT 03/M02 A3041 RMK A01 T00331015  RH  071%=      5-min Rain = 0
KCO2 061655Z 06002KT 03/M01 A3041 RMK A01 T00331014  RH  071%=      5-min Rain = 0
KCO2 061656Z 05001KT 03/M01 A3041 RMK A01 T00331011  RH  073%=      5-min Rain = 0
KCO2 061657Z 03002KT 03/M01 A3041 RMK A01 T00331011  RH  073%=      5-min Rain = 0
KCO2 061658Z 01002KT 03/M01 A3041 RMK A01 T00331013  RH  072%=      5-min Rain = 0
KCO2 061659Z 36002KT 03/M01 A3041 RMK A01 T00331013  RH  072%=      5-min Rain = 0
KCO2 061700Z 35001KT 03/M01 A3041 RMK A01 T00331014  RH  072%=      5-min Rain = 0
KCO2 061701Z 35000KT 03/M01 A304 RMK A01 T00331014  RH  071%=      5-min Rain = 0
KCO2 061702Z 01000KT 03/M01 A304 RMK A01 T00331014  RH  071%=      5-min Rain = 0
KCO2 061703Z 03001KT 03/M01 A304 RMK A01 T00331010  RH  073%=      5-min Rain = 0
KCO2 061704Z 03001KT 03/M01 A304 RMK A01 T00331011  RH  073%=      5-min Rain = 0
KCO2 061705Z 01001KT 03/M01 A304 RMK A01 T00331011  RH  073%=      5-min Rain = 0
KCO2 061706Z 01001KT 03/M01 A304 RMK A01 T00321008  RH  075%=      5-min Rain = 0
KCO2 061707Z 02002KT 03/M01 A304 RMK A01 T00321007  RH  076%=      5-min Rain = 0.01
KCO2 061708Z 03002KT 03/M01 A304 RMK A01 T00311008  RH  076%=      5-min Rain = 0
KCO2 061709Z 03002KT 03/M01 A304 RMK A01 T00301006  RH  077%=      5-min Rain = 0
KCO2 061710Z 04002KT 03/M01 A304 RMK A01 T00291005  RH  078%=      5-min Rain = 0
KCO2 061711Z 05002KT 03/M00 A304 RMK A01 T00291004  RH  079%=      5-min Rain = 0
KCO2 061712Z 05001KT 03/M00 A304 RMK A01 T00281004  RH  079%=      5-min Rain = 0
KCO2 061713Z 05002KT 03/M01 A304 RMK A01 T00281005  RH  079%=      5-min Rain = 0
KCO2 061714Z 05002KT 03/M00 A304 RMK A01 T00281004  RH  080%=      5-min Rain = 0.01
KCO2 061715Z 04001KT 03/M00 A304 RMK A01 T00281002  RH  081%=      5-min Rain = 0
KCO2 061716Z 02001KT 03/M00 A304 RMK A01 T00271002  RH  081%=      5-min Rain = 0
KCO2 061717Z 36001KT 03/00 A304 RMK A01 T002700-0  RH  082%=      5-min Rain = 0
KCO2 061718Z 34002KT 03/00 A304 RMK A01 T00270000  RH  083%=      5-min Rain = 0
KCO2 061719Z 34001KT 03/00 A304 RMK A01 T002700-0  RH  082%=      5-min Rain = 0
KCO2 061720Z 35002KT 03/M01 A304 RMK A01 T00271005  RH  080%=      5-min Rain = 0
KCO2 061721Z 00001KT 03/M00 A304 RMK A01 T00261004  RH  081%=      5-min Rain = 0
KCO2 061722Z 00001KT 03/00 A304 RMK A01 T00270000  RH  083%=      5-min Rain = 0
KCO2 061723Z 35002KT 03/00 A304 RMK A01 T00270001  RH  083%=      5-min Rain = 0
KCO2 061724Z 35002KT 03/00 A304 RMK A01 T00270002  RH  084%=      5-min Rain = 0
KCO2 061725Z 36002KT 03/00 A304 RMK A01 T00270002  RH  084%=      5-min Rain = 0
KCO2 061726Z 35002KT 03/00 A304 RMK A01 T00270003  RH  084%=      5-min Rain = 0
KCO2 061727Z 00003KT 03/00 A304 RMK A01 T00260002  RH  084%=      5-min Rain = 0
KCO2 061728Z 36002KT 03/00 A304 RMK A01 T00270003  RH  084%=      5-min Rain = 0.01
KCO2 061729Z 00003KT 03/00 A304 RMK A01 T00260003  RH  085%=      5-min Rain = 0
KCO2 061730Z 01002KT 03/00 A304 RMK A01 T00270003  RH  084%=      5-min Rain = 0
KCO2 061731Z 02003KT 03/00 A304 RMK A01 T00270002  RH  084%=      5-min Rain = 0
KCO2 061732Z 02002KT 03/M00 A304 RMK A01 T00261004  RH  080%=      5-min Rain = 0
KCO2 061733Z 04002KT 03/M00 A304 RMK A01 T00271004  RH  080%=      5-min Rain = 0
KCO2 061734Z 03002KT 03/M00 A304 RMK A01 T00261002  RH  082%=      5-min Rain = 0
KCO2 061735Z 03001KT 03/00 A304 RMK A01 T002700-0  RH  083%=      5-min Rain = 0
KCO2 061736Z 03002KT 03/00 A304 RMK A01 T00270002  RH  083%=      5-min Rain = 0
KCO2 061737Z 03002KT 03/00 A304 RMK A01 T00270002  RH  084%=      5-min Rain = 0
KCO2 061738Z 03002KT 03/00 A304 RMK A01 T00270004  RH  085%=      5-min Rain = 0
KCO2 061739Z 03002KT 03/01 A304 RMK A01 T00270005  RH  085%=      5-min Rain = 0
KCO2 061740Z 02002KT 03/00 A304 RMK A01 T00270004  RH  085%=      5-min Rain = 0
KCO2 061741Z 02002KT 03/00 A304 RMK A01 T00280001  RH  083%=      5-min Rain = 0
KCO2 061742Z 02002KT 03/00 A304 RMK A01 T00280000  RH  082%=      5-min Rain = 0.01
KCO2 061743Z 02002KT 03/00 A304 RMK A01 T00270000  RH  082%=      5-min Rain = 0
KCO2 061744Z 03002KT 03/M00 A304 RMK A01 T00271001  RH  082%=      5-min Rain = 0
KCO2 061745Z 03003KT 03/00 A304 RMK A01 T00270002  RH  084%=      5-min Rain = 0
KCO2 061746Z 03003KT 03/00 A304 RMK A01 T00270002  RH  084%=      5-min Rain = 0
KCO2 061747Z 02003KT 03/M00 A304 RMK A01 T00271001  RH  082%=      5-min Rain = 0
KCO2 061748Z 02003KT 03/M00 A304 RMK A01 T00271002  RH  081%=      5-min Rain = 0
KCO2 061749Z 03003KT 03/00 A304 RMK A01 T00270000  RH  083%=      5-min Rain = 0
KCO2 061750Z 02003KT 03/M00 A304 RMK A01 T00271002  RH  082%=      5-min Rain = 0
KCO2 061751Z 02002KT 03/M00 A304 RMK A01 T00271001  RH  082%=      5-min Rain = 0
KCO2 061752Z 05002KT 03/00 A304 RMK A01 T00270000  RH  083%=      5-min Rain = 0
KCO2 061753Z 05002KT 03/M00 A304 RMK A01 T00271001  RH  082%=      5-min Rain = 0
KCO2 061754Z 03002KT 03/00 A304 RMK A01 T00270003  RH  084%=      5-min Rain = 0
KCO2 061755Z 01002KT 03/01 A3039 RMK A01 T00280006  RH  085%=      5-min Rain = 0
KCO2 061756Z 01001KT 03/01 A3039 RMK A01 T00290006  RH  085%=      5-min Rain = 0
KCO2 061757Z 35002KT 03/01 A3039 RMK A01 T00290007  RH  086%=      5-min Rain = 0
KCO2 061758Z 36003KT 03/00 A304 RMK A01 T00290004  RH  084%=      5-min Rain = 0
KCO2 061759Z 00003KT 03/01 A304 RMK A01 T00290005  RH  084%=      5-min Rain = 0.01
KCO2 061800Z 01004KT 03/01 A304 RMK A01 T00290007  RH  086%=      5-min Rain = 0
KCO2 061801Z 01004KT 03/01 A304 RMK A01 T00290008  RH  086%=      5-min Rain = 0
KCO2 061802Z 01004KT 03/01 A304 RMK A01 T00290009  RH  087%=      5-min Rain = 0
KCO2 061803Z 02004KT 03/01 A3039 RMK A01 T00290007  RH  086%=      5-min Rain = 0
KCO2 061804Z 00004KT 03/01 A3039 RMK A01 T00290009  RH  087%=      5-min Rain = 0
KCO2 061805Z 02004KT 03/01 A3039 RMK A01 T00280008  RH  087%=      5-min Rain = 0
KCO2 061806Z 01005KT 03/01 A3039 RMK A01 T00280008  RH  087%=      5-min Rain = 0
KCO2 061807Z 01004KT 03/01 A3039 RMK A01 T00270007  RH  087%=      5-min Rain = 0
KCO2 061808Z 02004KT 03/01 A3039 RMK A01 T00270005  RH  085%=      5-min Rain = 0
KCO2 061809Z 02004KT 03/01 A3039 RMK A01 T00270007  RH  087%=      5-min Rain = 0
KCO2 061810Z 01003KT 03/01 A3039 RMK A01 T00270008  RH  088%=      5-min Rain = 0.01
KCO2 061811Z 01002KT 03/01 A3039 RMK A01 T00260008  RH  088%=      5-min Rain = 0
KCO2 061812Z 00003KT 03/01 A304 RMK A01 T00270009  RH  088%=      5-min Rain = 0
KCO2 061813Z 35002KT 03/01 A304 RMK A01 T00270007  RH  087%=      5-min Rain = 0
KCO2 061814Z 33002KT 03/01 A304 RMK A01 T00260007  RH  087%=      5-min Rain = 0
KCO2 061815Z 33003KT 03/01 A304 RMK A01 T00260008  RH  088%=      5-min Rain = 0
KCO2 061816Z 33003KT 03/01 A304 RMK A01 T00260006  RH  087%=      5-min Rain = 0
KCO2 061817Z 34003KT 03/01 A3039 RMK A01 T00250006  RH  087%=      5-min Rain = 0
KCO2 061818Z 34003KT 03/01 A3039 RMK A01 T00250007  RH  088%=      5-min Rain = 0
KCO2 061819Z 36003KT 03/01 A3039 RMK A01 T00250008  RH  088%=      5-min Rain = 0
KCO2 061820Z 01002KT 03/01 A3039 RMK A01 T00250009  RH  089%=      5-min Rain = 0
KCO2 061821Z 36002KT 03/01 A3039 RMK A01 T00250009  RH  089%=      5-min Rain = 0
KCO2 061822Z 36003KT 03/01 A304 RMK A01 T00250009  RH  089%=      5-min Rain = 0
KCO2 061823Z 00003KT 03/01 A304 RMK A01 T00260011  RH  090%=      5-min Rain = 0
KCO2 061824Z 36003KT 03/01 A3039 RMK A01 T00260011  RH  090%=      5-min Rain = 0
KCO2 061825Z 00003KT 03/01 A3039 RMK A01 T00260011  RH  090%=      5-min Rain = 0
KCO2 061826Z 36003KT 03/01 A3039 RMK A01 T00260011  RH  090%=      5-min Rain = 0.01
KCO2 061827Z 35003KT 03/01 A3039 RMK A01 T00260010  RH  090%=      5-min Rain = 0
KCO2 061828Z 36003KT 03/01 A3039 RMK A01 T00250011  RH  090%=      5-min Rain = 0
KCO2 061829Z 35003KT 03/01 A3039 RMK A01 T00250012  RH  091%=      5-min Rain = 0
KCO2 061830Z 35002KT 03/01 A3039 RMK A01 T00250011  RH  090%=      5-min Rain = 0
KCO2 061831Z 34002KT 02/01 A3039 RMK A01 T00240009  RH  089%=      5-min Rain = 0
KCO2 061832Z 34002KT 03/01 A3039 RMK A01 T00250011  RH  091%=      5-min Rain = 0
KCO2 061833Z 35002KT 03/01 A3039 RMK A01 T00250013  RH  092%=      5-min Rain = 0
KCO2 061834Z 00002KT 03/01 A3039 RMK A01 T00260014  RH  092%=      5-min Rain = 0
KCO2 061835Z 35001KT 03/01 A3039 RMK A01 T00260013  RH  092%=      5-min Rain = 0
KCO2 061836Z 33002KT 03/01 A3039 RMK A01 T00260013  RH  091%=      5-min Rain = 0
KCO2 061837Z 33002KT 03/01 A3039 RMK A01 T00260013  RH  091%=      5-min Rain = 0
KCO2 061838Z 33002KT 03/01 A3038 RMK A01 T00260013  RH  091%=      5-min Rain = 0
KCO2 061839Z 34002KT 03/01 A3038 RMK A01 T00260014  RH  092%=      5-min Rain = 0
KCO2 061840Z 34003KT 03/02 A3038 RMK A01 T00260015  RH  092%=      5-min Rain = 0.01
KCO2 061841Z 33002KT 03/01 A3038 RMK A01 T00260013  RH  091%=      5-min Rain = 0
KCO2 061842Z 34002KT 03/01 A3038 RMK A01 T00250012  RH  091%=      5-min Rain = 0
KCO2 061843Z 33002KT 02/01 A3038 RMK A01 T00240010  RH  090%=      5-min Rain = 0
KCO2 061844Z 34002KT 02/01 A3038 RMK A01 T00240010  RH  090%=      5-min Rain = 0
KCO2 061845Z 33002KT 02/01 A3038 RMK A01 T00240009  RH  090%=      5-min Rain = 0
KCO2 061846Z 33002KT 02/01 A3038 RMK A01 T00230009  RH  090%=      5-min Rain = 0
KCO2 061847Z 35002KT 02/01 A3038 RMK A01 T00230009  RH  090%=      5-min Rain = 0
KCO2 061848Z 36002KT 02/01 A3038 RMK A01 T00240011  RH  091%=      5-min Rain = 0
KCO2 061849Z 32002KT 03/01 A3038 RMK A01 T00250013  RH  092%=      5-min Rain = 0
KCO2 061850Z 33002KT 03/01 A3038 RMK A01 T00250014  RH  092%=      5-min Rain = 0
KCO2 061851Z 32002KT 03/01 A3038 RMK A01 T00250013  RH  091%=      5-min Rain = 0.01
KCO2 061852Z 33002KT 03/01 A3038 RMK A01 T00250013  RH  092%=      5-min Rain = 0
KCO2 061853Z 33002KT 03/01 A3038 RMK A01 T00260014  RH  092%=      5-min Rain = 0
KCO2 061854Z 35002KT 03/01 A3038 RMK A01 T00260014  RH  092%=      5-min Rain = 0
KCO2 061855Z 34002KT 03/01 A3038 RMK A01 T00260012  RH  091%=      5-min Rain = 0
KCO2 061856Z 34002KT 03/01 A3038 RMK A01 T00260012  RH  091%=      5-min Rain = 0
KCO2 061857Z 34002KT 03/01 A3037 RMK A01 T00250010  RH  090%=      5-min Rain = 0
KCO2 061858Z 33001KT 03/01 A3037 RMK A01 T00250009  RH  089%=      5-min Rain = 0
KCO2 061859Z 34000KT 03/01 A3037 RMK A01 T00260011  RH  090%=      5-min Rain = 0
KCO2 061900Z 00000KT 03/02 A3037 RMK A01 T00270016  RH  092%=      5-min Rain = 0
KCO2 061901Z 00000KT 03/02 A3037 RMK A01 T00280016  RH  092%=      5-min Rain = 0
KCO2 061902Z 36000KT 03/02 A3037 RMK A01 T00280015  RH  091%=      5-min Rain = 0
KCO2 061903Z 00000KT 03/02 A3037 RMK A01 T00280015  RH  091%=      5-min Rain = 0
KCO2 061904Z 00000KT 03/01 A3037 RMK A01 T00280014  RH  091%=      5-min Rain = 0
KCO2 061905Z 22000KT 03/01 A3037 RMK A01 T00280012  RH  089%=      5-min Rain = 0
KCO2 061906Z 24001KT 03/01 A3037 RMK A01 T00280011  RH  088%=      5-min Rain = 0
KCO2 061907Z 25000KT 03/01 A3037 RMK A01 T00280010  RH  088%=      5-min Rain = 0.01
KCO2 061908Z 21001KT 03/01 A3037 RMK A01 T00280010  RH  088%=      5-min Rain = 0
KCO2 061909Z 19000KT 03/01 A3037 RMK A01 T00280010  RH  088%=      5-min Rain = 0
KCO2 061910Z 12000KT 03/01 A3037 RMK A01 T00280011  RH  089%=      5-min Rain = 0
KCO2 061911Z 11000KT 03/01 A3037 RMK A01 T00280011  RH  089%=      5-min Rain = 0
KCO2 061912Z 12000KT 03/01 A3037 RMK A01 T00290013  RH  089%=      5-min Rain = 0
KCO2 061913Z 00000KT 03/01 A3037 RMK A01 T00290012  RH  089%=      5-min Rain = 0
KCO2 061914Z 00000KT 03/01 A3037 RMK A01 T00290012  RH  088%=      5-min Rain = 0
KCO2 061915Z 00000KT 03/01 A3037 RMK A01 T00300013  RH  089%=      5-min Rain = 0
KCO2 061916Z 14002KT 03/02 A3037 RMK A01 T00300015  RH  090%=      5-min Rain = 0
KCO2 061917Z 15001KT 03/02 A3037 RMK A01 T00310015  RH  089%=      5-min Rain = 0
KCO2 061918Z 10001KT 03/01 A3037 RMK A01 T00310013  RH  088%=      5-min Rain = 0
KCO2 061919Z 00000KT 03/01 A3037 RMK A01 T00310013  RH  088%=      5-min Rain = 0
KCO2 061920Z 08001KT 03/01 A3037 RMK A01 T00310014  RH  089%=      5-min Rain = 0
KCO2 061921Z 08003KT 03/01 A3037 RMK A01 T00310014  RH  089%=      5-min Rain = 0
KCO2 061922Z 13003KT 03/02 A3037 RMK A01 T00310015  RH  089%=      5-min Rain = 0
KCO2 061923Z 12003KT 03/02 A3037 RMK A01 T00320018  RH  091%=      5-min Rain = 0
KCO2 061924Z 12003KT 03/02 A3037 RMK A01 T00320018  RH  091%=      5-min Rain = 0
KCO2 061925Z 13002KT 03/01 A3037 RMK A01 T00320014  RH  088%=      5-min Rain = 0
KCO2 061926Z 11002KT 03/01 A3037 RMK A01 T00310013  RH  088%=      5-min Rain = 0
KCO2 061927Z 06002KT 03/02 A3037 RMK A01 T00310015  RH  089%=      5-min Rain = 0
KCO2 061928Z 07003KT 03/02 A3037 RMK A01 T00310016  RH  089%=      5-min Rain = 0
KCO2 061929Z 08003KT 03/01 A3037 RMK A01 T00310014  RH  089%=      5-min Rain = 0
KCO2 061930Z 06002KT 03/02 A3037 RMK A01 T00310015  RH  089%=      5-min Rain = 0
KCO2 061931Z 08002KT 03/02 A3037 RMK A01 T00310015  RH  089%=      5-min Rain = 0
KCO2 061932Z 07003KT 03/02 A3037 RMK A01 T00310015  RH  090%=      5-min Rain = 0
KCO2 061933Z 07003KT 03/01 A3037 RMK A01 T00310014  RH  089%=      5-min Rain = 0
KCO2 061934Z 09002KT 03/01 A3037 RMK A01 T00310013  RH  088%=      5-min Rain = 0
KCO2 061935Z 09002KT 03/02 A3036 RMK A01 T00310015  RH  089%=      5-min Rain = 0
KCO2 061936Z 11002KT 03/02 A3036 RMK A01 T00310016  RH  090%=      5-min Rain = 0
KCO2 061937Z 11002KT 03/02 A3036 RMK A01 T00320016  RH  090%=      5-min Rain = 0
KCO2 061938Z 11002KT 03/02 A3036 RMK A01 T00320016  RH  089%=      5-min Rain = 0
KCO2 061939Z 11002KT 03/02 A3036 RMK A01 T00320015  RH  089%=      5-min Rain = 0
KCO2 061940Z 11002KT 03/02 A3036 RMK A01 T00310015  RH  089%=      5-min Rain = 0
KCO2 061941Z 06003KT 03/02 A3036 RMK A01 T00320018  RH  090%=      5-min Rain = 0
KCO2 061942Z 07002KT 03/02 A3036 RMK A01 T00320018  RH  090%=      5-min Rain = 0
KCO2 061943Z 06001KT 03/02 A3036 RMK A01 T00320016  RH  089%=      5-min Rain = 0
KCO2 061944Z 07002KT 03/02 A3036 RMK A01 T00320016  RH  089%=      5-min Rain = 0
KCO2 061945Z 07002KT 03/02 A3036 RMK A01 T00330018  RH  090%=      5-min Rain = 0
KCO2 061946Z 07001KT 03/02 A3036 RMK A01 T00330017  RH  089%=      5-min Rain = 0
KCO2 061947Z 08001KT 03/02 A3036 RMK A01 T00330015  RH  088%=      5-min Rain = 0
KCO2 061948Z 10002KT 03/02 A3036 RMK A01 T00330015  RH  088%=      5-min Rain = 0
KCO2 061949Z 09002KT 03/01 A3036 RMK A01 T00320014  RH  088%=      5-min Rain = 0
KCO2 061950Z 07002KT 03/02 A3036 RMK A01 T00320015  RH  089%=      5-min Rain = 0.01
KCO2 061951Z 04001KT 03/02 A3036 RMK A01 T00320015  RH  088%=      5-min Rain = 0
KCO2 061952Z 05000KT 03/02 A3035 RMK A01 T00320015  RH  088%=      5-min Rain = 0
KCO2 061953Z 02001KT 03/02 A3035 RMK A01 T00330018  RH  090%=      5-min Rain = 0
KCO2 061954Z 03001KT 03/02 A3035 RMK A01 T00340019  RH  090%=      5-min Rain = 0
KCO2 061955Z 01002KT 03/02 A3035 RMK A01 T00340019  RH  090%=      5-min Rain = 0
KCO2 061956Z 01002KT 04/02 A3035 RMK A01 T00350020  RH  090%=      5-min Rain = 0
KCO2 061957Z 03002KT 04/02 A3035 RMK A01 T00350020  RH  090%=      5-min Rain = 0
KCO2 061958Z 05002KT 04/02 A3035 RMK A01 T00350020  RH  090%=      5-min Rain = 0
KCO2 061959Z 06002KT 04/02 A3035 RMK A01 T00350017  RH  088%=      5-min Rain = 0
KCO2 062000Z 04001KT 04/02 A3035 RMK A01 T00350019  RH  089%=      5-min Rain = 0
KCO2 062001Z 04002KT 04/02 A3035 RMK A01 T00360019  RH  089%=      5-min Rain = 0
KCO2 062002Z 03000KT 04/02 A3035 RMK A01 T00350015  RH  087%=      5-min Rain = 0
KCO2 062003Z 03001KT 04/02 A3035 RMK A01 T00350015  RH  087%=      5-min Rain = 0
KCO2 062004Z 00001KT 04/02 A3035 RMK A01 T00360018  RH  088%=      5-min Rain = 0
KCO2 062005Z 02002KT 04/02 A3035 RMK A01 T00360019  RH  089%=      5-min Rain = 0
KCO2 062006Z 01002KT 04/02 A3035 RMK A01 T00360019  RH  089%=      5-min Rain = 0
KCO2 062007Z 01001KT 04/02 A3034 RMK A01 T00360018  RH  088%=      5-min Rain = 0
KCO2 062008Z 02001KT 04/02 A3034 RMK A01 T00360019  RH  089%=      5-min Rain = 0
KCO2 062009Z 01001KT 04/02 A3034 RMK A01 T00360019  RH  089%=      5-min Rain = 0
KCO2 062010Z 02002KT 04/02 A3034 RMK A01 T00360019  RH  089%=      5-min Rain = 0
KCO2 062011Z 03003KT 04/02 A3034 RMK A01 T00370022  RH  090%=      5-min Rain = 0
KCO2 062012Z 03002KT 04/02 A3034 RMK A01 T00370021  RH  089%=      5-min Rain = 0
KCO2 062013Z 07002KT 04/02 A3034 RMK A01 T00370021  RH  089%=      5-min Rain = 0
KCO2 062014Z 06000KT 04/02 A3034 RMK A01 T00370020  RH  089%=      5-min Rain = 0
KCO2 062015Z 05002KT 04/02 A3034 RMK A01 T00370020  RH  089%=      5-min Rain = 0
KCO2 062016Z 07002KT 04/02 A3034 RMK A01 T00380021  RH  089%=      5-min Rain = 0
KCO2 062017Z 07001KT 04/02 A3034 RMK A01 T00380021  RH  088%=      5-min Rain = 0
KCO2 062018Z 11001KT 04/02 A3034 RMK A01 T00390021  RH  089%=      5-min Rain = 0
KCO2 062019Z 11002KT 04/02 A3034 RMK A01 T00390021  RH  088%=      5-min Rain = 0
KCO2 062020Z 11001KT 04/02 A3034 RMK A01 T00390021  RH  088%=      5-min Rain = 0
KCO2 062021Z 10000KT 04/02 A3034 RMK A01 T00390021  RH  088%=      5-min Rain = 0
KCO2 062022Z 11001KT 04/02 A3034 RMK A01 T00390021  RH  088%=      5-min Rain = 0
KCO2 062023Z 12001KT 04/02 A3034 RMK A01 T00400021  RH  088%=      5-min Rain = 0
KCO2 062024Z 10001KT 04/02 A3034 RMK A01 T00390021  RH  088%=      5-min Rain = 0
KCO2 062025Z 09000KT 04/02 A3034 RMK A01 T00400021  RH  088%=      5-min Rain = 0
KCO2 062026Z 09001KT 04/02 A3034 RMK A01 T00390021  RH  088%=      5-min Rain = 0
KCO2 062027Z 11002KT 04/02 A3034 RMK A01 T00400023  RH  089%=      5-min Rain = 0
KCO2 062028Z 09001KT 04/02 A3034 RMK A01 T00400023  RH  088%=      5-min Rain = 0
KCO2 062029Z 07002KT 04/02 A3034 RMK A01 T00410024  RH  089%=      5-min Rain = 0
KCO2 062030Z 11001KT 04/03 A3034 RMK A01 T00420025  RH  089%=      5-min Rain = 0
KCO2 062031Z 14002KT 04/03 A3034 RMK A01 T00410026  RH  089%=      5-min Rain = 0
KCO2 062032Z 13002KT 04/03 A3034 RMK A01 T00420025  RH  089%=      5-min Rain = 0
KCO2 062033Z 10002KT 04/03 A3034 RMK A01 T00420025  RH  089%=      5-min Rain = 0
KCO2 062034Z 08002KT 04/03 A3034 RMK A01 T00430028  RH  090%=      5-min Rain = 0
KCO2 062035Z 06002KT 04/02 A3034 RMK A01 T00420023  RH  088%=      5-min Rain = 0
KCO2 062036Z 07002KT 04/02 A3034 RMK A01 T00420021  RH  087%=      5-min Rain = 0
KCO2 062037Z 07002KT 04/02 A3034 RMK A01 T00410022  RH  087%=      5-min Rain = 0
KCO2 062038Z 10001KT 04/02 A3034 RMK A01 T00410020  RH  086%=      5-min Rain = 0
KCO2 062039Z 10002KT 04/02 A3034 RMK A01 T00400020  RH  087%=      5-min Rain = 0
KCO2 062040Z 12003KT 04/02 A3034 RMK A01 T00400022  RH  088%=      5-min Rain = 0
KCO2 062041Z 12002KT 04/02 A3034 RMK A01 T00400023  RH  088%=      5-min Rain = 0
KCO2 062042Z 11002KT 04/02 A3034 RMK A01 T00400022  RH  088%=      5-min Rain = 0
KCO2 062043Z 13001KT 04/02 A3034 RMK A01 T00400021  RH  087%=      5-min Rain = 0
KCO2 062044Z 10002KT 04/02 A3034 RMK A01 T00400019  RH  086%=      5-min Rain = 0
KCO2 062045Z 10002KT 04/02 A3034 RMK A01 T00400019  RH  086%=      5-min Rain = 0
KCO2 062046Z 08001KT 04/02 A3034 RMK A01 T00400019  RH  086%=      5-min Rain = 0
KCO2 062047Z 12001KT 04/02 A3034 RMK A01 T00400020  RH  087%=      5-min Rain = 0
KCO2 062048Z 14001KT 04/02 A3034 RMK A01 T00400020  RH  087%=      5-min Rain = 0
KCO2 062049Z 10001KT 04/02 A3034 RMK A01 T00400021  RH  087%=      5-min Rain = 0
KCO2 062050Z 07001KT 04/02 A3035 RMK A01 T00400020  RH  087%=      5-min Rain = 0
KCO2 062051Z 05001KT 04/02 A3035 RMK A01 T00400019  RH  086%=      5-min Rain = 0
KCO2 062052Z 04001KT 04/02 A3034 RMK A01 T00400019  RH  086%=      5-min Rain = 0
KCO2 062053Z 06001KT 04/02 A3034 RMK A01 T00410020  RH  086%=      5-min Rain = 0
KCO2 062054Z 08001KT 04/02 A3034 RMK A01 T00400019  RH  086%=      5-min Rain = 0
KCO2 062055Z 06001KT 04/02 A3035 RMK A01 T00410021  RH  087%=      5-min Rain = 0
KCO2 062056Z 04001KT 04/02 A3035 RMK A01 T00410024  RH  088%=      5-min Rain = 0
KCO2 062057Z 02001KT 04/02 A3035 RMK A01 T00410020  RH  086%=      5-min Rain = 0
KCO2 062058Z 02001KT 04/02 A3035 RMK A01 T00410018  RH  085%=      5-min Rain = 0
KCO2 062059Z 02002KT 04/02 A3035 RMK A01 T00410019  RH  086%=      5-min Rain = 0
KCO2 062100Z 01002KT 04/02 A3035 RMK A01 T00410019  RH  085%=      5-min Rain = 0
KCO2 062101Z 02002KT 04/02 A3035 RMK A01 T00410020  RH  086%=      5-min Rain = 0
KCO2 062102Z 04002KT 04/02 A3034 RMK A01 T00410020  RH  086%=      5-min Rain = 0
KCO2 062103Z 05002KT 04/02 A3034 RMK A01 T00410017  RH  084%=      5-min Rain = 0
KCO2 062104Z 05002KT 04/02 A3034 RMK A01 T00410017  RH  084%=      5-min Rain = 0
KCO2 062105Z 06002KT 04/02 A3034 RMK A01 T00410019  RH  085%=      5-min Rain = 0
KCO2 062106Z 06002KT 04/02 A3034 RMK A01 T00410019  RH  086%=      5-min Rain = 0
KCO2 062107Z 05002KT 04/02 A3034 RMK A01 T00410020  RH  086%=      5-min Rain = 0
KCO2 062108Z 06003KT 04/02 A3034 RMK A01 T00420020  RH  086%=      5-min Rain = 0
KCO2 062109Z 05002KT 04/02 A3034 RMK A01 T00420019  RH  085%=      5-min Rain = 0
KCO2 062110Z 05002KT 04/02 A3034 RMK A01 T00420019  RH  085%=      5-min Rain = 0
KCO2 062111Z 06002KT 04/02 A3035 RMK A01 T00420021  RH  086%=      5-min Rain = 0
KCO2 062112Z 07002KT 04/02 A3035 RMK A01 T00420021  RH  086%=      5-min Rain = 0
KCO2 062113Z 08003KT 04/02 A3035 RMK A01 T00420021  RH  086%=      5-min Rain = 0
KCO2 062114Z 08002KT 04/02 A3035 RMK A01 T00420022  RH  087%=      5-min Rain = 0
KCO2 062115Z 07002KT 04/02 A3034 RMK A01 T00430024  RH  088%=      5-min Rain = 0
KCO2 062116Z 07002KT 04/02 A3034 RMK A01 T00430022  RH  086%=      5-min Rain = 0
KCO2 062117Z 07002KT 04/02 A3034 RMK A01 T00430020  RH  085%=      5-min Rain = 0
KCO2 062118Z 09002KT 04/02 A3034 RMK A01 T00430023  RH  087%=      5-min Rain = 0
KCO2 062119Z 09002KT 04/02 A3034 RMK A01 T00430022  RH  086%=      5-min Rain = 0
KCO2 062120Z 09003KT 04/02 A3034 RMK A01 T00430023  RH  087%=      5-min Rain = 0
KCO2 062121Z 08004KT 04/02 A3034 RMK A01 T00430024  RH  087%=      5-min Rain = 0
KCO2 062122Z 06003KT 04/02 A3034 RMK A01 T00430022  RH  086%=      5-min Rain = 0
KCO2 062123Z 08003KT 04/02 A3034 RMK A01 T00430022  RH  086%=      5-min Rain = 0
KCO2 062124Z 08005KT 04/02 A3034 RMK A01 T00440024  RH  087%=      5-min Rain = 0
KCO2 062125Z 08005KT 04/03 A3034 RMK A01 T00440026  RH  088%=      5-min Rain = 0
KCO2 062126Z 08005KT 05/02 A3034 RMK A01 T00450023  RH  086%=      5-min Rain = 0
KCO2 062127Z 08005KT 04/02 A3034 RMK A01 T00440020  RH  085%=      5-min Rain = 0
KCO2 062128Z 09005KT 04/02 A3034 RMK A01 T00440021  RH  085%=      5-min Rain = 0
KCO2 062129Z 08005KT 04/02 A3034 RMK A01 T00440024  RH  087%=      5-min Rain = 0
KCO2 062130Z 07004KT 04/02 A3034 RMK A01 T00440023  RH  086%=      5-min Rain = 0
KCO2 062131Z 07004KT 04/02 A3035 RMK A01 T00440021  RH  085%=      5-min Rain = 0
KCO2 062132Z 08004KT 04/02 A3035 RMK A01 T00430020  RH  085%=      5-min Rain = 0
KCO2 062133Z 08005KT 04/02 A3035 RMK A01 T00430022  RH  086%=      5-min Rain = 0
KCO2 062134Z 09004KT 04/02 A3035 RMK A01 T00430023  RH  087%=      5-min Rain = 0
KCO2 062135Z 08003KT 04/02 A3035 RMK A01 T00430024  RH  087%=      5-min Rain = 0
KCO2 062136Z 08004KT 04/02 A3034 RMK A01 T00430024  RH  088%=      5-min Rain = 0
KCO2 062137Z 08005KT 04/02 A3034 RMK A01 T00430023  RH  087%=      5-min Rain = 0
KCO2 062138Z 08005KT 04/02 A3034 RMK A01 T00430024  RH  088%=      5-min Rain = 0
KCO2 062139Z 07004KT 04/02 A3034 RMK A01 T00430024  RH  088%=      5-min Rain = 0
KCO2 062140Z 07005KT 04/03 A3034 RMK A01 T00430025  RH  088%=      5-min Rain = 0
KCO2 062141Z 08004KT 04/03 A3034 RMK A01 T00430025  RH  089%=      5-min Rain = 0
KCO2 062142Z 08003KT 04/03 A3034 RMK A01 T00430025  RH  088%=      5-min Rain = 0
KCO2 062143Z 07004KT 04/02 A3034 RMK A01 T00420024  RH  088%=      5-min Rain = 0
KCO2 062144Z 08004KT 04/02 A3034 RMK A01 T00420022  RH  087%=      5-min Rain = 0
KCO2 062145Z 09004KT 04/02 A3034 RMK A01 T00420024  RH  088%=      5-min Rain = 0
KCO2 062146Z 09004KT 04/03 A3034 RMK A01 T00420025  RH  089%=      5-min Rain = 0
KCO2 062147Z 09004KT 04/03 A3034 RMK A01 T00430026  RH  089%=      5-min Rain = 0
KCO2 062148Z 09003KT 04/02 A3034 RMK A01 T00420023  RH  087%=      5-min Rain = 0
KCO2 062149Z 10003KT 04/02 A3034 RMK A01 T00430024  RH  087%=      5-min Rain = 0
KCO2 062150Z 09003KT 04/03 A3034 RMK A01 T00420025  RH  089%=      5-min Rain = 0
KCO2 062151Z 07004KT 04/03 A3034 RMK A01 T00420027  RH  090%=      5-min Rain = 0
KCO2 062152Z 08004KT 04/03 A3034 RMK A01 T00430026  RH  089%=      5-min Rain = 0
KCO2 062153Z 08004KT 04/03 A3034 RMK A01 T00430025  RH  088%=      5-min Rain = 0
KCO2 062154Z 08003KT 04/02 A3034 RMK A01 T00430024  RH  088%=      5-min Rain = 0
KCO2 062155Z 07003KT 04/02 A3035 RMK A01 T00430024  RH  088%=      5-min Rain = 0
KCO2 062156Z 06004KT 04/02 A3035 RMK A01 T00430024  RH  088%=      5-min Rain = 0
KCO2 062157Z 07004KT 04/02 A3035 RMK A01 T00420021  RH  086%=      5-min Rain = 0
KCO2 062158Z 07004KT 04/02 A3035 RMK A01 T00420021  RH  086%=      5-min Rain = 0
KCO2 062159Z 07004KT 04/02 A3035 RMK A01 T00420022  RH  087%=      5-min Rain = 0
KCO2 062200Z 08004KT 04/03 A3035 RMK A01 T00420025  RH  089%=      5-min Rain = 0
KCO2 062201Z 08004KT 04/02 A3035 RMK A01 T00420024  RH  088%=      5-min Rain = 0
KCO2 062202Z 08004KT 04/02 A3035 RMK A01 T00420023  RH  087%=      5-min Rain = 0
KCO2 062203Z 08004KT 04/02 A3035 RMK A01 T00420023  RH  087%=      5-min Rain = 0
KCO2 062204Z 08003KT 04/02 A3035 RMK A01 T00420022  RH  087%=      5-min Rain = 0
KCO2 062205Z 08003KT 04/02 A3035 RMK A01 T00420022  RH  087%=      5-min Rain = 0
KCO2 062206Z 08004KT 04/02 A3035 RMK A01 T00420024  RH  088%=      5-min Rain = 0
KCO2 062207Z 09003KT 04/02 A3035 RMK A01 T00420023  RH  088%=      5-min Rain = 0.01
KCO2 062208Z 09004KT 04/03 A3035 RMK A01 T00420025  RH  088%=      5-min Rain = 0
KCO2 062209Z 08004KT 04/02 A3035 RMK A01 T00420024  RH  088%=      5-min Rain = 0
KCO2 062210Z 09004KT 04/02 A3035 RMK A01 T00420023  RH  087%=      5-min Rain = 0
KCO2 062211Z 09003KT 04/02 A3035 RMK A01 T00420023  RH  088%=      5-min Rain = 0
KCO2 062212Z 09003KT 04/02 A3035 RMK A01 T00420022  RH  087%=      5-min Rain = 0
KCO2 062213Z 10003KT 04/02 A3035 RMK A01 T00420023  RH  087%=      5-min Rain = 0
KCO2 062214Z 10003KT 04/02 A3035 RMK A01 T00420024  RH  088%=      5-min Rain = 0
KCO2 062215Z 10003KT 04/02 A3035 RMK A01 T00420024  RH  088%=      5-min Rain = 0
KCO2 062216Z 10003KT 04/02 A3035 RMK A01 T00420023  RH  087%=      5-min Rain = 0
KCO2 062217Z 08003KT 04/02 A3035 RMK A01 T00420023  RH  087%=      5-min Rain = 0
KCO2 062218Z 08004KT 04/03 A3035 RMK A01 T00430025  RH  089%=      5-min Rain = 0
KCO2 062219Z 08003KT 04/02 A3035 RMK A01 T00420022  RH  086%=      5-min Rain = 0
KCO2 062220Z 08004KT 04/02 A3035 RMK A01 T00420022  RH  087%=      5-min Rain = 0
KCO2 062221Z 07005KT 04/02 A3035 RMK A01 T00420024  RH  088%=      5-min Rain = 0
KCO2 062222Z 07004KT 04/02 A3035 RMK A01 T00420021  RH  086%=      5-min Rain = 0
KCO2 062223Z 07003KT 04/02 A3035 RMK A01 T00420020  RH  086%=      5-min Rain = 0
KCO2 062224Z 07003KT 04/02 A3035 RMK A01 T00420021  RH  086%=      5-min Rain = 0
KCO2 062225Z 06003KT 04/02 A3035 RMK A01 T00420022  RH  087%=      5-min Rain = 0
KCO2 062226Z 07003KT 04/02 A3035 RMK A01 T00420024  RH  088%=      5-min Rain = 0
KCO2 062227Z 07004KT 04/02 A3035 RMK A01 T00420023  RH  088%=      5-min Rain = 0
KCO2 062228Z 07004KT 04/02 A3035 RMK A01 T00420023  RH  087%=      5-min Rain = 0
KCO2 062229Z 07003KT 04/02 A3035 RMK A01 T00420023  RH  087%=      5-min Rain = 0
KCO2 062230Z 07004KT 04/02 A3035 RMK A01 T00420022  RH  087%=      5-min Rain = 0
KCO2 062231Z 07004KT 04/02 A3035 RMK A01 T00420022  RH  087%=      5-min Rain = 0
KCO2 062232Z 07003KT 04/02 A3035 RMK A01 T00420021  RH  086%=      5-min Rain = 0
KCO2 062233Z 08003KT 04/02 A3035 RMK A01 T00420023  RH  087%=      5-min Rain = 0
KCO2 062234Z 08003KT 04/02 A3035 RMK A01 T00420023  RH  087%=      5-min Rain = 0
KCO2 062235Z 09003KT 04/02 A3035 RMK A01 T00420023  RH  087%=      5-min Rain = 0
KCO2 062236Z 09003KT 04/03 A3035 RMK A01 T00420025  RH  089%=      5-min Rain = 0
KCO2 062237Z 08004KT 04/03 A3035 RMK A01 T00430026  RH  089%=      5-min Rain = 0
KCO2 062238Z 08004KT 04/03 A3035 RMK A01 T00430026  RH  089%=      5-min Rain = 0
KCO2 062239Z 07004KT 04/02 A3036 RMK A01 T00430023  RH  087%=      5-min Rain = 0
KCO2 062240Z 07003KT 04/02 A3036 RMK A01 T00430022  RH  087%=      5-min Rain = 0
KCO2 062241Z 06003KT 04/02 A3036 RMK A01 T00430023  RH  087%=      5-min Rain = 0
KCO2 062242Z 06002KT 04/02 A3036 RMK A01 T00430022  RH  087%=      5-min Rain = 0
KCO2 062243Z 07003KT 04/02 A3036 RMK A01 T00430023  RH  087%=      5-min Rain = 0
KCO2 062244Z 08002KT 04/02 A3036 RMK A01 T00430022  RH  087%=      5-min Rain = 0
KCO2 062245Z 09002KT 04/02 A3036 RMK A01 T00420022  RH  087%=      5-min Rain = 0
KCO2 062246Z 08002KT 04/03 A3036 RMK A01 T00430025  RH  088%=      5-min Rain = 0
KCO2 062247Z 08002KT 04/03 A3036 RMK A01 T00430027  RH  089%=      5-min Rain = 0
KCO2 062248Z 10002KT 04/03 A3036 RMK A01 T00430026  RH  089%=      5-min Rain = 0
KCO2 062249Z 10003KT 04/03 A3036 RMK A01 T00430026  RH  089%=      5-min Rain = 0
KCO2 062250Z 09003KT 04/02 A3036 RMK A01 T00430024  RH  088%=      5-min Rain = 0
KCO2 062251Z 11003KT 04/02 A3036 RMK A01 T00430024  RH  088%=      5-min Rain = 0
KCO2 062252Z 11003KT 04/02 A3036 RMK A01 T00430024  RH  088%=      5-min Rain = 0
KCO2 062253Z 10003KT 04/02 A3036 RMK A01 T00420024  RH  088%=      5-min Rain = 0
KCO2 062254Z 08003KT 04/02 A3036 RMK A01 T00420024  RH  088%=      5-min Rain = 0
KCO2 062255Z 07003KT 04/03 A3036 RMK A01 T00420026  RH  089%=      5-min Rain = 0
KCO2 062256Z 08003KT 04/03 A3036 RMK A01 T00430025  RH  089%=      5-min Rain = 0
KCO2 062257Z 07003KT 04/03 A3036 RMK A01 T00430025  RH  088%=      5-min Rain = 0
KCO2 062258Z 09003KT 04/02 A3036 RMK A01 T00430023  RH  087%=      5-min Rain = 0
KCO2 062259Z 08002KT 04/02 A3036 RMK A01 T00430023  RH  087%=      5-min Rain = 0
KCO2 062300Z 08002KT 04/02 A3036 RMK A01 T00430024  RH  088%=      5-min Rain = 0
KCO2 062301Z 07003KT 04/03 A3036 RMK A01 T00430026  RH  089%=      5-min Rain = 0
KCO2 062302Z 08003KT 04/03 A3036 RMK A01 T00430027  RH  089%=      5-min Rain = 0
KCO2 062303Z 07003KT 04/03 A3036 RMK A01 T00430027  RH  089%=      5-min Rain = 0
KCO2 062304Z 07003KT 04/03 A3036 RMK A01 T00430026  RH  088%=      5-min Rain = 0
KCO2 062305Z 08003KT 04/03 A3036 RMK A01 T00430025  RH  088%=      5-min Rain = 0
KCO2 062306Z 08003KT 04/03 A3036 RMK A01 T00430025  RH  088%=      5-min Rain = 0
KCO2 062307Z 08004KT 04/03 A3036 RMK A01 T00430025  RH  088%=      5-min Rain = 0
KCO2 062308Z 08004KT 04/02 A3036 RMK A01 T00430022  RH  086%=      5-min Rain = 0
KCO2 062309Z 08005KT 04/02 A3036 RMK A01 T00430021  RH  086%=      5-min Rain = 0
KCO2 062310Z 08004KT 04/02 A3036 RMK A01 T00430021  RH  086%=      5-min Rain = 0
KCO2 062311Z 07003KT 04/02 A3036 RMK A01 T00420023  RH  087%=      5-min Rain = 0
KCO2 062312Z 06003KT 04/03 A3036 RMK A01 T00430025  RH  088%=      5-min Rain = 0
KCO2 062313Z 07003KT 04/03 A3036 RMK A01 T00430025  RH  088%=      5-min Rain = 0
KCO2 062314Z 06003KT 04/03 A3036 RMK A01 T00430025  RH  088%=      5-min Rain = 0
KCO2 062315Z 06003KT 04/02 A3036 RMK A01 T00430024  RH  088%=      5-min Rain = 0
KCO2 062316Z 06003KT 04/02 A3036 RMK A01 T00430024  RH  088%=      5-min Rain = 0
KCO2 062317Z 06004KT 04/03 A3036 RMK A01 T00430026  RH  089%=      5-min Rain = 0
KCO2 062318Z 06003KT 04/03 A3037 RMK A01 T00430026  RH  089%=      5-min Rain = 0
KCO2 062319Z 05002KT 04/03 A3037 RMK A01 T00430026  RH  089%=      5-min Rain = 0
KCO2 062320Z 05003KT 04/03 A3037 RMK A01 T00430027  RH  089%=      5-min Rain = 0
KCO2 062321Z 06003KT 04/03 A3037 RMK A01 T00420026  RH  089%=      5-min Rain = 0
KCO2 062322Z 05002KT 04/03 A3037 RMK A01 T00430027  RH  090%=      5-min Rain = 0
KCO2 062323Z 06002KT 04/03 A3037 RMK A01 T00420027  RH  090%=      5-min Rain = 0
KCO2 062324Z 07003KT 04/03 A3037 RMK A01 T00430027  RH  090%=      5-min Rain = 0
KCO2 062325Z 07004KT 04/03 A3037 RMK A01 T00420025  RH  088%=      5-min Rain = 0
KCO2 062326Z 08004KT 04/03 A3037 RMK A01 T00420025  RH  088%=      5-min Rain = 0
KCO2 062327Z 08003KT 04/03 A3036 RMK A01 T00420025  RH  089%=      5-min Rain = 0
KCO2 062328Z 09003KT 04/03 A3036 RMK A01 T00420026  RH  089%=      5-min Rain = 0
KCO2 062329Z 09004KT 04/03 A3036 RMK A01 T00420027  RH  090%=      5-min Rain = 0
KCO2 062330Z 09004KT 04/03 A3036 RMK A01 T00420026  RH  090%=      5-min Rain = 0
KCO2 062331Z 09004KT 04/03 A3036 RMK A01 T00420026  RH  090%=      5-min Rain = 0
KCO2 062332Z 09003KT 04/03 A3037 RMK A01 T00420026  RH  090%=      5-min Rain = 0
KCO2 062333Z 09003KT 04/03 A3037 RMK A01 T00410026  RH  090%=      5-min Rain = 0
KCO2 062334Z 09002KT 04/03 A3037 RMK A01 T00410026  RH  090%=      5-min Rain = 0
KCO2 062335Z 09002KT 04/03 A3037 RMK A01 T00410026  RH  090%=      5-min Rain = 0
KCO2 062336Z 09002KT 04/03 A3037 RMK A01 T00410027  RH  090%=      5-min Rain = 0
KCO2 062337Z 09002KT 04/03 A3037 RMK A01 T00410027  RH  091%=      5-min Rain = 0
KCO2 062338Z 09002KT 04/03 A3037 RMK A01 T00410027  RH  090%=      5-min Rain = 0
KCO2 062339Z 09002KT 04/03 A3037 RMK A01 T00410027  RH  090%=      5-min Rain = 0
KCO2 062340Z 09002KT 04/03 A3037 RMK A01 T00410027  RH  091%=      5-min Rain = 0
KCO2 062341Z 09003KT 04/03 A3037 RMK A01 T00410027  RH  091%=      5-min Rain = 0
KCO2 062342Z 09002KT 04/03 A3037 RMK A01 T00410027  RH  091%=      5-min Rain = 0
KCO2 062343Z 09003KT 04/03 A3037 RMK A01 T00410027  RH  091%=      5-min Rain = 0
KCO2 062344Z 08003KT 04/03 A3037 RMK A01 T00410026  RH  090%=      5-min Rain = 0
KCO2 062345Z 08002KT 04/03 A3037 RMK A01 T00410026  RH  090%=      5-min Rain = 0
KCO2 062346Z 07002KT 04/03 A3037 RMK A01 T00410027  RH  091%=      5-min Rain = 0
KCO2 062347Z 06002KT 04/03 A3037 RMK A01 T00410027  RH  091%=      5-min Rain = 0
KCO2 062348Z 06003KT 04/03 A3037 RMK A01 T00410027  RH  091%=      5-min Rain = 0
KCO2 062349Z 07004KT 04/03 A3037 RMK A01 T00410025  RH  090%=      5-min Rain = 0
KCO2 062350Z 07004KT 04/02 A3037 RMK A01 T00410024  RH  089%=      5-min Rain = 0.01
KCO2 062351Z 07003KT 04/02 A3037 RMK A01 T00410023  RH  088%=      5-min Rain = 0
KCO2 062352Z 06004KT 04/02 A3037 RMK A01 T00410023  RH  088%=      5-min Rain = 0
KCO2 062353Z 06003KT 04/02 A3037 RMK A01 T00410022  RH  088%=      5-min Rain = 0
KCO2 062354Z 07004KT 04/02 A3037 RMK A01 T00410023  RH  088%=      5-min Rain = 0
KCO2 062355Z 07003KT 04/02 A3037 RMK A01 T00400023  RH  088%=      5-min Rain = 0
KCO2 062356Z 07003KT 04/02 A3037 RMK A01 T00400023  RH  088%=      5-min Rain = 0
KCO2 062357Z 07003KT 04/02 A3037 RMK A01 T00400023  RH  089%=      5-min Rain = 0
KCO2 062358Z 07003KT 04/02 A3037 RMK A01 T00410024  RH  089%=      5-min Rain = 0
KCO2 062359Z 06003KT 04/02 A3037 RMK A01 T00400024  RH  089%=      5-min Rain = 0
KCO2 070000Z 06003KT 04/03 A3037 RMK A01 T00400025  RH  090%=      5-min Rain = 0
KCO2 070001Z 06003KT 04/03 A3037 RMK A01 T00400026  RH  091%=      5-min Rain = 0
KCO2 070002Z 06003KT 04/03 A3037 RMK A01 T00400027  RH  091%=      5-min Rain = 0
KCO2 070003Z 06003KT 04/03 A3037 RMK A01 T00400027  RH  091%=      5-min Rain = 0
KCO2 070004Z 06002KT 04/03 A3037 RMK A01 T00400026  RH  091%=      5-min Rain = 0
KCO2 070005Z 06002KT 04/03 A3038 RMK A01 T00390025  RH  091%=      5-min Rain = 0
KCO2 070006Z 06002KT 04/02 A3038 RMK A01 T00390024  RH  090%=      5-min Rain = 0
KCO2 070007Z 07003KT 04/02 A3038 RMK A01 T00390024  RH  090%=      5-min Rain = 0
KCO2 070008Z 07004KT 04/03 A3037 RMK A01 T00390025  RH  090%=      5-min Rain = 0
KCO2 070009Z 07004KT 04/02 A3037 RMK A01 T00390024  RH  090%=      5-min Rain = 0
KCO2 070010Z 07004KT 04/03 A3037 RMK A01 T00400025  RH  090%=      5-min Rain = 0
KCO2 070011Z 07004KT 04/02 A3037 RMK A01 T00390024  RH  090%=      5-min Rain = 0
KCO2 070012Z 08003KT 04/02 A3037 RMK A01 T00400024  RH  090%=      5-min Rain = 0
KCO2 070013Z 08003KT 04/03 A3037 RMK A01 T00390025  RH  090%=      5-min Rain = 0
KCO2 070014Z 08004KT 04/02 A3037 RMK A01 T00390024  RH  090%=      5-min Rain = 0
KCO2 070015Z 08004KT 04/02 A3037 RMK A01 T00390024  RH  090%=      5-min Rain = 0
KCO2 070016Z 08004KT 04/02 A3037 RMK A01 T00390023  RH  090%=      5-min Rain = 0
KCO2 070017Z 08004KT 04/02 A3037 RMK A01 T00390023  RH  090%=      5-min Rain = 0
KCO2 070018Z 08004KT 04/02 A3037 RMK A01 T00390023  RH  090%=      5-min Rain = 0
KCO2 070019Z 08004KT 04/02 A3037 RMK A01 T00380023  RH  089%=      5-min Rain = 0
KCO2 070020Z 08003KT 04/02 A3037 RMK A01 T00380023  RH  090%=      5-min Rain = 0
KCO2 070021Z 07003KT 04/02 A3038 RMK A01 T00390024  RH  090%=      5-min Rain = 0
KCO2 070022Z 07003KT 04/03 A3038 RMK A01 T00390025  RH  091%=      5-min Rain = 0
KCO2 070023Z 06002KT 04/03 A3038 RMK A01 T00390025  RH  091%=      5-min Rain = 0
KCO2 070024Z 06002KT 04/03 A3038 RMK A01 T00380025  RH  091%=      5-min Rain = 0
KCO2 070025Z 06002KT 04/03 A3038 RMK A01 T00380025  RH  091%=      5-min Rain = 0
KCO2 070026Z 06003KT 04/03 A3038 RMK A01 T00380025  RH  091%=      5-min Rain = 0
KCO2 070027Z 06003KT 04/02 A3038 RMK A01 T00380024  RH  091%=      5-min Rain = 0
KCO2 070028Z 05002KT 04/02 A3039 RMK A01 T00380024  RH  090%=      5-min Rain = 0
KCO2 070029Z 05002KT 04/02 A3039 RMK A01 T00380024  RH  091%=      5-min Rain = 0
KCO2 070030Z 05002KT 04/03 A3038 RMK A01 T00380025  RH  091%=      5-min Rain = 0
KCO2 070031Z 05002KT 04/02 A3038 RMK A01 T00380024  RH  091%=      5-min Rain = 0
KCO2 070032Z 05002KT 04/02 A3038 RMK A01 T00380024  RH  091%=      5-min Rain = 0
KCO2 070033Z 05003KT 04/03 A3038 RMK A01 T00380025  RH  091%=      5-min Rain = 0
KCO2 070034Z 05003KT 04/03 A3038 RMK A01 T00380025  RH  091%=      5-min Rain = 0
KCO2 070035Z 05003KT 04/03 A3038 RMK A01 T00380025  RH  091%=      5-min Rain = 0
KCO2 070036Z 05002KT 04/02 A3038 RMK A01 T00380024  RH  091%=      5-min Rain = 0
KCO2 070037Z 05003KT 04/02 A3038 RMK A01 T00380024  RH  091%=      5-min Rain = 0
KCO2 070038Z 05003KT 04/02 A3038 RMK A01 T00380024  RH  091%=      5-min Rain = 0
KCO2 070039Z 05003KT 04/02 A3038 RMK A01 T00370024  RH  091%=      5-min Rain = 0
KCO2 070040Z 04003KT 04/02 A3038 RMK A01 T00370024  RH  091%=      5-min Rain = 0
KCO2 070041Z 04003KT 04/02 A3038 RMK A01 T00370023  RH  091%=      5-min Rain = 0
KCO2 070042Z 04003KT 04/02 A3038 RMK A01 T00370023  RH  091%=      5-min Rain = 0
KCO2 070043Z 05003KT 04/02 A3038 RMK A01 T00370022  RH  090%=      5-min Rain = 0
KCO2 070044Z 05003KT 04/02 A3038 RMK A01 T00370022  RH  090%=      5-min Rain = 0
KCO2 070045Z 04003KT 04/02 A3038 RMK A01 T00370023  RH  091%=      5-min Rain = 0.01
KCO2 070046Z 04003KT 04/02 A3038 RMK A01 T00370023  RH  091%=      5-min Rain = 0
KCO2 070047Z 04003KT 04/02 A3038 RMK A01 T00370024  RH  091%=      5-min Rain = 0
KCO2 070048Z 05003KT 04/02 A3038 RMK A01 T00370023  RH  091%=      5-min Rain = 0
KCO2 070049Z 05002KT 04/02 A3038 RMK A01 T00370023  RH  091%=      5-min Rain = 0
KCO2 070050Z 05003KT 04/02 A3038 RMK A01 T00370023  RH  091%=      5-min Rain = 0
KCO2 070051Z 05002KT 04/02 A3038 RMK A01 T00370024  RH  091%=      5-min Rain = 0
KCO2 070052Z 04002KT 04/02 A3038 RMK A01 T00370024  RH  091%=      5-min Rain = 0
KCO2 070053Z 05002KT 04/02 A3038 RMK A01 T00360022  RH  091%=      5-min Rain = 0
KCO2 070054Z 05002KT 04/02 A3038 RMK A01 T00360022  RH  090%=      5-min Rain = 0
KCO2 070055Z 05003KT 04/02 A3038 RMK A01 T00360021  RH  090%=      5-min Rain = 0
KCO2 070056Z 06002KT 04/02 A3038 RMK A01 T00360021  RH  090%=      5-min Rain = 0
KCO2 070057Z 05002KT 04/02 A3038 RMK A01 T00360022  RH  090%=      5-min Rain = 0
KCO2 070058Z 04003KT 04/02 A3038 RMK A01 T00360022  RH  091%=      5-min Rain = 0
KCO2 070059Z 04002KT 04/02 A3038 RMK A01 T00360022  RH  091%=      5-min Rain = 0
KCO2 070100Z 03003KT 04/02 A3038 RMK A01 T00360022  RH  090%=      5-min Rain = 0
KCO2 070101Z 03003KT 04/02 A3038 RMK A01 T00360021  RH  090%=      5-min Rain = 0
KCO2 070102Z 05003KT 04/02 A3038 RMK A01 T00360020  RH  089%=      5-min Rain = 0
KCO2 070103Z 05003KT 04/02 A3038 RMK A01 T00360020  RH  089%=      5-min Rain = 0
KCO2 070104Z 05003KT 04/02 A3038 RMK A01 T00360019  RH  089%=      5-min Rain = 0
KCO2 070105Z 03002KT 04/02 A3038 RMK A01 T00370020  RH  089%=      5-min Rain = 0
KCO2 070106Z 03002KT 04/02 A3039 RMK A01 T00370021  RH  090%=      5-min Rain = 0
KCO2 070107Z 03002KT 04/02 A3039 RMK A01 T00370022  RH  090%=      5-min Rain = 0
KCO2 070108Z 03002KT 04/02 A3039 RMK A01 T00360022  RH  091%=      5-min Rain = 0
KCO2 070109Z 03002KT 04/02 A3039 RMK A01 T00370023  RH  091%=      5-min Rain = 0
KCO2 070110Z 03002KT 04/02 A3039 RMK A01 T00370023  RH  091%=      5-min Rain = 0
KCO2 070111Z 02001KT 04/02 A3039 RMK A01 T00370024  RH  091%=      5-min Rain = 0
KCO2 070112Z 02001KT 04/03 A3038 RMK A01 T00370025  RH  092%=      5-min Rain = 0
KCO2 070113Z 02002KT 04/03 A3038 RMK A01 T00370025  RH  092%=      5-min Rain = 0
KCO2 070114Z 01002KT 04/02 A3038 RMK A01 T00370024  RH  091%=      5-min Rain = 0
KCO2 070115Z 01003KT 04/02 A3038 RMK A01 T00370024  RH  091%=      5-min Rain = 0
KCO2 070116Z 35003KT 04/02 A3038 RMK A01 T00370023  RH  091%=      5-min Rain = 0
KCO2 070117Z 01003KT 04/02 A3038 RMK A01 T00370024  RH  091%=      5-min Rain = 0
KCO2 070118Z 36004KT 04/02 A3038 RMK A01 T00370024  RH  091%=      5-min Rain = 0
KCO2 070119Z 00004KT 04/02 A3038 RMK A01 T00370024  RH  091%=      5-min Rain = 0
KCO2 070120Z 00003KT 04/02 A3039 RMK A01 T00370024  RH  091%=      5-min Rain = 0
KCO2 070121Z 36003KT 04/02 A3039 RMK A01 T00370024  RH  091%=      5-min Rain = 0
KCO2 070122Z 35002KT 04/02 A3038 RMK A01 T00360024  RH  091%=      5-min Rain = 0
KCO2 070123Z 35002KT 04/02 A3038 RMK A01 T00360023  RH  091%=      5-min Rain = 0
KCO2 070124Z 33001KT 04/02 A3038 RMK A01 T00360023  RH  091%=      5-min Rain = 0
KCO2 070125Z 32001KT 04/02 A3038 RMK A01 T00360022  RH  091%=      5-min Rain = 0
KCO2 070126Z 29001KT 04/02 A3038 RMK A01 T00360023  RH  091%=      5-min Rain = 0
KCO2 070127Z 27002KT 04/02 A3038 RMK A01 T00360023  RH  091%=      5-min Rain = 0
KCO2 070128Z 26001KT 04/02 A3038 RMK A01 T00360024  RH  092%=      5-min Rain = 0
KCO2 070129Z 25001KT 04/03 A3038 RMK A01 T00360025  RH  092%=      5-min Rain = 0
KCO2 070130Z 24002KT 04/03 A3038 RMK A01 T00360025  RH  093%=      5-min Rain = 0
KCO2 070131Z 23002KT 04/03 A3037 RMK A01 T00360025  RH  093%=      5-min Rain = 0
KCO2 070132Z 22003KT 04/03 A3037 RMK A01 T00350025  RH  093%=      5-min Rain = 0
KCO2 070133Z 22003KT 04/03 A3037 RMK A01 T00350026  RH  093%=      5-min Rain = 0
KCO2 070134Z 22004KT 04/03 A3038 RMK A01 T00350025  RH  094%=      5-min Rain = 0
KCO2 070135Z 23004KT 04/03 A3038 RMK A01 T00350025  RH  094%=      5-min Rain = 0
KCO2 070136Z 23004KT 04/03 A3038 RMK A01 T00350026  RH  094%=      5-min Rain = 0
KCO2 070137Z 24003KT 04/03 A3038 RMK A01 T00350026  RH  094%=      5-min Rain = 0
KCO2 070138Z 25003KT 04/03 A3038 RMK A01 T00350026  RH  094%=      5-min Rain = 0
KCO2 070139Z 25003KT 04/03 A3038 RMK A01 T00350026  RH  094%=      5-min Rain = 0
KCO2 070140Z 25004KT 04/03 A3038 RMK A01 T00350026  RH  094%=      5-min Rain = 0
KCO2 070141Z 26004KT 04/03 A3039 RMK A01 T00350026  RH  094%=      5-min Rain = 0
KCO2 070142Z 25004KT 04/03 A3039 RMK A01 T00350026  RH  094%=      5-min Rain = 0
KCO2 070143Z 25004KT 04/03 A3039 RMK A01 T00350026  RH  094%=      5-min Rain = 0
KCO2 070144Z 24004KT 04/03 A3039 RMK A01 T00350027  RH  094%=      5-min Rain = 0
KCO2 070145Z 24004KT 04/03 A3039 RMK A01 T00350026  RH  094%=      5-min Rain = 0
KCO2 070146Z 23004KT 03/03 A3039 RMK A01 T00340025  RH  094%=      5-min Rain = 0
KCO2 070147Z 22004KT 03/03 A3039 RMK A01 T00340025  RH  094%=      5-min Rain = 0
KCO2 070148Z 23004KT 03/03 A3039 RMK A01 T00340025  RH  094%=      5-min Rain = 0
KCO2 070149Z 22004KT 03/03 A3039 RMK A01 T00340025  RH  093%=      5-min Rain = 0
KCO2 070150Z 22003KT 04/03 A3038 RMK A01 T00350025  RH  093%=      5-min Rain = 0
KCO2 070151Z 22003KT 03/03 A3038 RMK A01 T00340025  RH  093%=      5-min Rain = 0
KCO2 070152Z 22003KT 03/03 A3038 RMK A01 T00340025  RH  094%=      5-min Rain = 0
KCO2 070153Z 22003KT 03/03 A3038 RMK A01 T00340025  RH  094%=      5-min Rain = 0
KCO2 070154Z 23003KT 03/03 A3038 RMK A01 T00340025  RH  094%=      5-min Rain = 0
KCO2 070155Z 23004KT 03/03 A3038 RMK A01 T00340025  RH  094%=      5-min Rain = 0
KCO2 070156Z 23003KT 03/03 A3038 RMK A01 T00340025  RH  094%=      5-min Rain = 0
KCO2 070157Z 22003KT 03/03 A3038 RMK A01 T00340025  RH  094%=      5-min Rain = 0
KCO2 070158Z 22003KT 03/03 A3038 RMK A01 T00340025  RH  093%=      5-min Rain = 0
KCO2 070159Z 21002KT 03/02 A3038 RMK A01 T00340024  RH  093%=      5-min Rain = 0
KCO2 070200Z 21002KT 03/02 A3038 RMK A01 T00340024  RH  093%=      5-min Rain = 0
KCO2 070201Z 21003KT 03/02 A3038 RMK A01 T00340024  RH  093%=      5-min Rain = 0
KCO2 070202Z 20003KT 04/03 A3038 RMK A01 T00350025  RH  093%=      5-min Rain = 0
KCO2 070203Z 20003KT 04/03 A3038 RMK A01 T00350025  RH  093%=      5-min Rain = 0
KCO2 070204Z 20003KT 04/03 A3038 RMK A01 T00350025  RH  093%=      5-min Rain = 0
KCO2 070205Z 20004KT 04/03 A3038 RMK A01 T00350025  RH  093%=      5-min Rain = 0
KCO2 070206Z 21004KT 04/03 A3038 RMK A01 T00350025  RH  093%=      5-min Rain = 0
KCO2 070207Z 21004KT 04/03 A3038 RMK A01 T00350025  RH  093%=      5-min Rain = 0
KCO2 070208Z 21005KT 04/03 A3038 RMK A01 T00350026  RH  094%=      5-min Rain = 0
KCO2 070209Z 21005KT 04/03 A3038 RMK A01 T00350026  RH  094%=      5-min Rain = 0
KCO2 070210Z 21004KT 04/03 A3038 RMK A01 T00350026  RH  094%=      5-min Rain = 0
KCO2 070211Z 22004KT 04/03 A3038 RMK A01 T00350026  RH  094%=      5-min Rain = 0
KCO2 070212Z 23004KT 04/03 A3038 RMK A01 T00350025  RH  094%=      5-min Rain = 0
KCO2 070213Z 23004KT 04/03 A3038 RMK A01 T00350026  RH  094%=      5-min Rain = 0
KCO2 070214Z 22004KT 04/03 A3038 RMK A01 T00350025  RH  094%=      5-min Rain = 0
KCO2 070215Z 22003KT 04/03 A3038 RMK A01 T00350025  RH  094%=      5-min Rain = 0
KCO2 070216Z 21003KT 04/03 A3038 RMK A01 T00350026  RH  094%=      5-min Rain = 0
KCO2 070217Z 22003KT 04/03 A3038 RMK A01 T00350026  RH  094%=      5-min Rain = 0
KCO2 070218Z 21003KT 04/03 A3037 RMK A01 T00350026  RH  094%=      5-min Rain = 0
KCO2 070219Z 21004KT 04/03 A3037 RMK A01 T00350026  RH  094%=      5-min Rain = 0
KCO2 070220Z 20004KT 04/03 A3037 RMK A01 T00350026  RH  094%=      5-min Rain = 0
KCO2 070221Z 20005KT 03/03 A3037 RMK A01 T00340025  RH  093%=      5-min Rain = 0
KCO2 070222Z 21004KT 03/02 A3038 RMK A01 T00340024  RH  093%=      5-min Rain = 0
KCO2 070223Z 21005KT 03/02 A3038 RMK A01 T00340024  RH  093%=      5-min Rain = 0
KCO2 070224Z 22005KT 03/02 A3038 RMK A01 T00340024  RH  093%=      5-min Rain = 0
KCO2 070225Z 22005KT 03/02 A3038 RMK A01 T00340024  RH  093%=      5-min Rain = 0
KCO2 070226Z 22004KT 03/02 A3038 RMK A01 T00340024  RH  093%=      5-min Rain = 0
KCO2 070227Z 23004KT 03/03 A3038 RMK A01 T00340025  RH  093%=      5-min Rain = 0
KCO2 070228Z 23004KT 03/03 A3038 RMK A01 T00340025  RH  094%=      5-min Rain = 0
KCO2 070229Z 24003KT 04/03 A3038 RMK A01 T00350025  RH  094%=      5-min Rain = 0
KCO2 070230Z 24003KT 03/03 A3038 RMK A01 T00340025  RH  094%=      5-min Rain = 0
KCO2 070231Z 24003KT 03/03 A3038 RMK A01 T00340025  RH  094%=      5-min Rain = 0
KCO2 070232Z 22003KT 03/03 A3038 RMK A01 T00340025  RH  094%=      5-min Rain = 0
KCO2 070233Z 21003KT 04/03 A3038 RMK A01 T00350025  RH  093%=      5-min Rain = 0
KCO2 070234Z 22005KT 03/03 A3038 RMK A01 T00340025  RH  093%=      5-min Rain = 0
KCO2 070235Z 21006KT 03/03 A3038 RMK A01 T00340025  RH  093%=      5-min Rain = 0
KCO2 070236Z 21004KT 03/02 A3038 RMK A01 T00340024  RH  093%=      5-min Rain = 0
KCO2 070237Z 21003KT 03/02 A3038 RMK A01 T00340024  RH  093%=      5-min Rain = 0
KCO2 070238Z 23003KT 03/02 A3038 RMK A01 T00340024  RH  093%=      5-min Rain = 0
KCO2 070239Z 25001KT 03/02 A3038 RMK A01 T00340024  RH  093%=      5-min Rain = 0
KCO2 070240Z 26001KT 03/02 A3038 RMK A01 T00340024  RH  093%=      5-min Rain = 0
KCO2 070241Z 28002KT 03/02 A3038 RMK A01 T00340024  RH  093%=      5-min Rain = 0
KCO2 070242Z 25003KT 03/02 A3038 RMK A01 T00340024  RH  093%=      5-min Rain = 0
KCO2 070243Z 24004KT 03/02 A3038 RMK A01 T00340024  RH  093%=      5-min Rain = 0
KCO2 070244Z 23004KT 03/02 A3038 RMK A01 T00340024  RH  093%=      5-min Rain = 0
KCO2 070245Z 21004KT 03/02 A3039 RMK A01 T00340024  RH  093%=      5-min Rain = 0
KCO2 070246Z 21005KT 03/03 A3038 RMK A01 T00340025  RH  094%=      5-min Rain = 0
KCO2 070247Z 21006KT 03/02 A3038 RMK A01 T00340024  RH  093%=      5-min Rain = 0
KCO2 070248Z 21007KT 03/02 A3038 RMK A01 T00340024  RH  093%=      5-min Rain = 0
KCO2 070249Z 21006KT 03/02 A3038 RMK A01 T00340024  RH  093%=      5-min Rain = 0
KCO2 070250Z 20006KT 03/02 A3038 RMK A01 T00340024  RH  093%=      5-min Rain = 0
KCO2 070251Z 21006KT 03/02 A3038 RMK A01 T00340024  RH  093%=      5-min Rain = 0
KCO2 070252Z 21005KT 03/02 A3037 RMK A01 T00340024  RH  093%=      5-min Rain = 0
KCO2 070253Z 23004KT 03/02 A3037 RMK A01 T00340024  RH  093%=      5-min Rain = 0
KCO2 070254Z 24003KT 03/02 A3038 RMK A01 T00340024  RH  093%=      5-min Rain = 0
KCO2 070255Z 26004KT 03/02 A3038 RMK A01 T00340024  RH  093%=      5-min Rain = 0
KCO2 070256Z 25005KT 03/02 A3038 RMK A01 T00340024  RH  093%=      5-min Rain = 0
KCO2 070257Z 22005KT 03/02 A3038 RMK A01 T00340023  RH  093%=      5-min Rain = 0
KCO2 070258Z 23006KT 03/02 A3038 RMK A01 T00340023  RH  093%=      5-min Rain = 0
KCO2 070259Z 25005KT 03/02 A3038 RMK A01 T00340023  RH  092%=      5-min Rain = 0
KCO2 070300Z 26003KT 03/02 A3038 RMK A01 T00340022  RH  092%=      5-min Rain = 0
KCO2 070301Z 22003KT 04/02 A3038 RMK A01 T00350021  RH  091%=      5-min Rain = 0
KCO2 070302Z 19003KT 03/02 A3038 RMK A01 T00340021  RH  091%=      5-min Rain = 0
KCO2 070303Z 18002KT 04/02 A3038 RMK A01 T00350022  RH  091%=      5-min Rain = 0
KCO2 070304Z 20002KT 03/02 A3038 RMK A01 T00340022  RH  091%=      5-min Rain = 0
KCO2 070305Z 23002KT 03/02 A3038 RMK A01 T00340022  RH  092%=      5-min Rain = 0
KCO2 070306Z 23003KT 03/02 A3038 RMK A01 T00340022  RH  092%=      5-min Rain = 0
KCO2 070307Z 23002KT 03/02 A3038 RMK A01 T00340023  RH  092%=      5-min Rain = 0
KCO2 070308Z 21002KT 03/02 A3038 RMK A01 T00340023  RH  092%=      5-min Rain = 0
KCO2 070309Z 24000KT 03/02 A3038 RMK A01 T00340023  RH  092%=      5-min Rain = 0
KCO2 070310Z 01000KT 03/02 A3038 RMK A01 T00340023  RH  092%=      5-min Rain = 0
KCO2 070311Z 02001KT 03/02 A3038 RMK A01 T00340023  RH  092%=      5-min Rain = 0
KCO2 070312Z 03002KT 04/02 A3038 RMK A01 T00350023  RH  092%=      5-min Rain = 0
KCO2 070313Z 01002KT 03/02 A3038 RMK A01 T00340023  RH  093%=      5-min Rain = 0
KCO2 070314Z 01002KT 03/02 A3038 RMK A01 T00340023  RH  093%=      5-min Rain = 0
KCO2 070315Z 01002KT 03/02 A3038 RMK A01 T00340024  RH  093%=      5-min Rain = 0
KCO2 070316Z 01002KT 03/02 A3038 RMK A01 T00340024  RH  093%=      5-min Rain = 0
KCO2 070317Z 01002KT 03/02 A3038 RMK A01 T00340023  RH  093%=      5-min Rain = 0
KCO2 070318Z 35003KT 03/02 A3038 RMK A01 T00340024  RH  093%=      5-min Rain = 0
KCO2 070319Z 33003KT 04/02 A3039 RMK A01 T00350024  RH  093%=      5-min Rain = 0
KCO2 070320Z 33003KT 03/02 A3039 RMK A01 T00340023  RH  092%=      5-min Rain = 0
KCO2 070321Z 34003KT 03/02 A3039 RMK A01 T00340023  RH  093%=      5-min Rain = 0
KCO2 070322Z 35003KT 03/02 A3039 RMK A01 T00340024  RH  093%=      5-min Rain = 0
KCO2 070323Z 34002KT 03/02 A3039 RMK A01 T00340024  RH  093%=      5-min Rain = 0
KCO2 070324Z 00002KT 03/02 A3039 RMK A01 T00340024  RH  093%=      5-min Rain = 0
KCO2 070325Z 35003KT 03/02 A3039 RMK A01 T00340024  RH  093%=      5-min Rain = 0
KCO2 070326Z 34003KT 03/02 A3039 RMK A01 T00340024  RH  093%=      5-min Rain = 0
KCO2 070327Z 34004KT 03/02 A3039 RMK A01 T00340024  RH  093%=      5-min Rain = 0
KCO2 070328Z 34003KT 03/02 A3039 RMK A01 T00330024  RH  094%=      5-min Rain = 0
KCO2 070329Z 35003KT 03/02 A3039 RMK A01 T00330024  RH  094%=      5-min Rain = 0
KCO2 070330Z 36003KT 03/02 A3039 RMK A01 T00330024  RH  094%=      5-min Rain = 0
KCO2 070331Z 35003KT 03/02 A3039 RMK A01 T00330024  RH  094%=      5-min Rain = 0
KCO2 070332Z 35003KT 03/02 A3038 RMK A01 T00330024  RH  094%=      5-min Rain = 0
KCO2 070333Z 34003KT 03/02 A3038 RMK A01 T00330024  RH  094%=      5-min Rain = 0
KCO2 070334Z 35003KT 03/03 A3038 RMK A01 T00330025  RH  094%=      5-min Rain = 0
KCO2 070335Z 36003KT 03/02 A3038 RMK A01 T00330024  RH  094%=      5-min Rain = 0
KCO2 070336Z 01003KT 03/02 A3038 RMK A01 T00330024  RH  094%=      5-min Rain = 0
KCO2 070337Z 00003KT 03/03 A3038 RMK A01 T00330025  RH  094%=      5-min Rain = 0
KCO2 070338Z 36003KT 03/03 A3038 RMK A01 T00330025  RH  094%=      5-min Rain = 0
KCO2 070339Z 35003KT 03/02 A3038 RMK A01 T00320024  RH  094%=      5-min Rain = 0
KCO2 070340Z 35003KT 03/02 A3038 RMK A01 T00330024  RH  094%=      5-min Rain = 0
KCO2 070341Z 36003KT 03/02 A3038 RMK A01 T00330024  RH  094%=      5-min Rain = 0
KCO2 070342Z 35002KT 03/02 A3038 RMK A01 T00320024  RH  094%=      5-min Rain = 0
KCO2 070343Z 32002KT 03/02 A3038 RMK A01 T00330024  RH  094%=      5-min Rain = 0
KCO2 070344Z 32001KT 03/02 A3038 RMK A01 T00320024  RH  094%=      5-min Rain = 0
KCO2 070345Z 32000KT 03/02 A3038 RMK A01 T00330024  RH  094%=      5-min Rain = 0
KCO2 070346Z 34001KT 03/02 A3038 RMK A01 T00320024  RH  094%=      5-min Rain = 0
KCO2 070347Z 34002KT 03/02 A3038 RMK A01 T00330024  RH  094%=      5-min Rain = 0
KCO2 070348Z 33002KT 03/02 A3038 RMK A01 T00320024  RH  094%=      5-min Rain = 0
KCO2 070349Z 33002KT 03/02 A3038 RMK A01 T00330024  RH  094%=      5-min Rain = 0
KCO2 070350Z 33003KT 03/02 A3038 RMK A01 T00330024  RH  094%=      5-min Rain = 0
KCO2 070351Z 32003KT 03/02 A3038 RMK A01 T00320024  RH  094%=      5-min Rain = 0
KCO2 070352Z 33003KT 03/02 A3038 RMK A01 T00320024  RH  094%=      5-min Rain = 0
KCO2 070353Z 34003KT 03/02 A3038 RMK A01 T00320024  RH  095%=      5-min Rain = 0
KCO2 070354Z 34003KT 03/02 A3038 RMK A01 T00320024  RH  095%=      5-min Rain = 0
KCO2 070355Z 33002KT 03/03 A3038 RMK A01 T00320025  RH  095%=      5-min Rain = 0
KCO2 070356Z 32002KT 03/02 A3038 RMK A01 T00320024  RH  095%=      5-min Rain = 0
KCO2 070357Z 33002KT 03/03 A3038 RMK A01 T00320025  RH  095%=      5-min Rain = 0
KCO2 070358Z 36001KT 03/03 A3038 RMK A01 T00320025  RH  095%=      5-min Rain = 0
KCO2 070359Z 01002KT 03/03 A3038 RMK A01 T00320025  RH  095%=      5-min Rain = 0
KCO2 070400Z 00002KT 03/02 A3038 RMK A01 T00320024  RH  095%=      5-min Rain = 0
KCO2 070401Z 35002KT 03/03 A3038 RMK A01 T00330025  RH  095%=      5-min Rain = 0
KCO2 070402Z 34002KT 03/03 A3038 RMK A01 T00330025  RH  095%=      5-min Rain = 0
KCO2 070403Z 33003KT 03/03 A3038 RMK A01 T00320025  RH  095%=      5-min Rain = 0
KCO2 070404Z 33003KT 03/03 A3038 RMK A01 T00320025  RH  095%=      5-min Rain = 0
KCO2 070405Z 32002KT 03/03 A3038 RMK A01 T00320025  RH  095%=      5-min Rain = 0
KCO2 070406Z 32001KT 03/03 A3038 RMK A01 T00330026  RH  095%=      5-min Rain = 0
KCO2 070407Z 32001KT 03/03 A3038 RMK A01 T00320025  RH  095%=      5-min Rain = 0
KCO2 070408Z 32001KT 03/03 A3038 RMK A01 T00330026  RH  095%=      5-min Rain = 0
KCO2 070409Z 31002KT 03/03 A3038 RMK A01 T00330026  RH  095%=      5-min Rain = 0
KCO2 070410Z 31003KT 03/03 A3038 RMK A01 T00320026  RH  095%=      5-min Rain = 0
KCO2 070411Z 31003KT 03/03 A3038 RMK A01 T00320026  RH  095%=      5-min Rain = 0
KCO2 070412Z 31004KT 03/03 A3038 RMK A01 T00330026  RH  095%=      5-min Rain = 0
KCO2 070413Z 31003KT 03/03 A3039 RMK A01 T00330026  RH  095%=      5-min Rain = 0
KCO2 070414Z 31003KT 03/03 A3039 RMK A01 T00330026  RH  095%=      5-min Rain = 0
KCO2 070415Z 32003KT 03/03 A3039 RMK A01 T00320026  RH  096%=      5-min Rain = 0
KCO2 070416Z 32003KT 03/03 A3039 RMK A01 T00330026  RH  096%=      5-min Rain = 0
KCO2 070417Z 33003KT 03/03 A3039 RMK A01 T00320026  RH  096%=      5-min Rain = 0
KCO2 070418Z 33003KT 03/03 A3039 RMK A01 T00320026  RH  096%=      5-min Rain = 0
KCO2 070419Z 33003KT 03/03 A3039 RMK A01 T00320026  RH  096%=      5-min Rain = 0
KCO2 070420Z 33003KT 03/03 A3039 RMK A01 T00320026  RH  096%=      5-min Rain = 0
KCO2 070421Z 32003KT 03/03 A3038 RMK A01 T00320026  RH  096%=      5-min Rain = 0
KCO2 070422Z 32003KT 03/03 A3039 RMK A01 T00320026  RH  096%=      5-min Rain = 0
KCO2 070423Z 33003KT 03/03 A3039 RMK A01 T00320026  RH  096%=      5-min Rain = 0
KCO2 070424Z 34003KT 03/03 A3039 RMK A01 T00320026  RH  096%=      5-min Rain = 0
KCO2 070425Z 34003KT 03/03 A3039 RMK A01 T00320026  RH  096%=      5-min Rain = 0
KCO2 070426Z 34003KT 03/03 A3039 RMK A01 T00320026  RH  096%=      5-min Rain = 0
KCO2 070427Z 34003KT 03/03 A3039 RMK A01 T00320026  RH  096%=      5-min Rain = 0
KCO2 070428Z 33003KT 03/03 A3039 RMK A01 T00320026  RH  096%=      5-min Rain = 0
KCO2 070429Z 33004KT 03/03 A3039 RMK A01 T00320026  RH  096%=      5-min Rain = 0
KCO2 070430Z 34004KT 03/03 A3039 RMK A01 T00320026  RH  096%=      5-min Rain = 0
KCO2 070431Z 34003KT 03/03 A3039 RMK A01 T00320026  RH  096%=      5-min Rain = 0
KCO2 070432Z 33004KT 03/03 A3039 RMK A01 T00320026  RH  096%=      5-min Rain = 0
KCO2 070433Z 33003KT 03/03 A3039 RMK A01 T00320026  RH  096%=      5-min Rain = 0
KCO2 070434Z 34002KT 03/03 A3039 RMK A01 T00320026  RH  096%=      5-min Rain = 0
KCO2 070435Z 36002KT 03/03 A3039 RMK A01 T00320026  RH  096%=      5-min Rain = 0
KCO2 070436Z 35003KT 03/03 A3039 RMK A01 T00320026  RH  096%=      5-min Rain = 0
KCO2 070437Z 34003KT 03/03 A3039 RMK A01 T00330026  RH  096%=      5-min Rain = 0
KCO2 070438Z 33004KT 03/03 A3039 RMK A01 T00330026  RH  096%=      5-min Rain = 0
KCO2 070439Z 34003KT 03/03 A3039 RMK A01 T00320026  RH  096%=      5-min Rain = 0
KCO2 070440Z 33003KT 03/03 A3039 RMK A01 T00330026  RH  096%=      5-min Rain = 0
KCO2 070441Z 33003KT 03/03 A3039 RMK A01 T00320026  RH  096%=      5-min Rain = 0
KCO2 070442Z 33003KT 03/03 A3039 RMK A01 T00320026  RH  096%=      5-min Rain = 0
KCO2 070443Z 33003KT 03/03 A3039 RMK A01 T00320026  RH  096%=      5-min Rain = 0
KCO2 070444Z 32002KT 03/03 A3039 RMK A01 T00330026  RH  096%=      5-min Rain = 0
KCO2 070445Z 30002KT 03/03 A3039 RMK A01 T00320026  RH  095%=      5-min Rain = 0
KCO2 070446Z 29002KT 03/03 A3038 RMK A01 T00330026  RH  095%=      5-min Rain = 0
KCO2 070447Z 29002KT 03/03 A3038 RMK A01 T00330026  RH  095%=      5-min Rain = 0
KCO2 070448Z 30002KT 03/03 A3039 RMK A01 T00330026  RH  095%=      5-min Rain = 0
KCO2 070449Z 31002KT 03/03 A3039 RMK A01 T00330026  RH  095%=      5-min Rain = 0
KCO2 070450Z 30002KT 03/03 A3039 RMK A01 T00330026  RH  095%=      5-min Rain = 0
KCO2 070451Z 29001KT 03/03 A3039 RMK A01 T00330026  RH  096%=      5-min Rain = 0
KCO2 070452Z 27001KT 03/03 A3039 RMK A01 T00330026  RH  096%=      5-min Rain = 0
KCO2 070453Z 30001KT 03/03 A3039 RMK A01 T00330027  RH  096%=      5-min Rain = 0
KCO2 070454Z 33002KT 03/03 A3039 RMK A01 T00330027  RH  096%=      5-min Rain = 0
KCO2 070455Z 33003KT 03/03 A3039 RMK A01 T00330027  RH  096%=      5-min Rain = 0
KCO2 070456Z 32003KT 03/03 A3038 RMK A01 T00330027  RH  096%=      5-min Rain = 0
KCO2 070457Z 32003KT 03/03 A3038 RMK A01 T00330027  RH  096%=      5-min Rain = 0
KCO2 070458Z 32003KT 03/03 A3039 RMK A01 T00330027  RH  096%=      5-min Rain = 0
KCO2 070459Z 33002KT 03/03 A3039 RMK A01 T00330027  RH  096%=      5-min Rain = 0
KCO2 070500Z 35002KT 03/03 A3039 RMK A01 T00330027  RH  096%=      5-min Rain = 0
KCO2 070501Z 35003KT 03/03 A3039 RMK A01 T00330027  RH  096%=      5-min Rain = 0
KCO2 070502Z 33003KT 03/03 A3039 RMK A01 T00330027  RH  096%=      5-min Rain = 0
KCO2 070503Z 31003KT 03/03 A3039 RMK A01 T00330027  RH  096%=      5-min Rain = 0
KCO2 070504Z 32004KT 03/03 A3039 RMK A01 T00330027  RH  096%=      5-min Rain = 0
KCO2 070505Z 33003KT 03/03 A3039 RMK A01 T00330027  RH  096%=      5-min Rain = 0
KCO2 070506Z 34003KT 03/03 A3039 RMK A01 T00330027  RH  096%=      5-min Rain = 0
KCO2 070507Z 35003KT 03/03 A3039 RMK A01 T00330027  RH  096%=      5-min Rain = 0
KCO2 070508Z 34002KT 03/03 A3039 RMK A01 T00330027  RH  096%=      5-min Rain = 0
KCO2 070509Z 33002KT 03/03 A3039 RMK A01 T00330027  RH  096%=      5-min Rain = 0
KCO2 070510Z 32002KT 03/03 A3039 RMK A01 T00330027  RH  096%=      5-min Rain = 0
KCO2 070511Z 33002KT 03/03 A3039 RMK A01 T00330027  RH  096%=      5-min Rain = 0
KCO2 070512Z 34003KT 03/03 A3039 RMK A01 T00330027  RH  096%=      5-min Rain = 0
KCO2 070513Z 34003KT 03/03 A3039 RMK A01 T00330027  RH  096%=      5-min Rain = 0
KCO2 070514Z 33004KT 03/03 A3039 RMK A01 T00330027  RH  096%=      5-min Rain = 0
KCO2 070515Z 33004KT 03/03 A3039 RMK A01 T00330027  RH  096%=      5-min Rain = 0
KCO2 070516Z 33003KT 03/03 A3039 RMK A01 T00330027  RH  096%=      5-min Rain = 0
KCO2 070517Z 33003KT 03/03 A3039 RMK A01 T00330027  RH  096%=      5-min Rain = 0
KCO2 070518Z 33003KT 03/03 A3039 RMK A01 T00330027  RH  096%=      5-min Rain = 0
KCO2 070519Z 34003KT 03/03 A3039 RMK A01 T00330027  RH  096%=      5-min Rain = 0
KCO2 070520Z 34003KT 03/03 A3039 RMK A01 T00330027  RH  096%=      5-min Rain = 0
KCO2 070521Z 33003KT 03/03 A3039 RMK A01 T00330027  RH  096%=      5-min Rain = 0
KCO2 070522Z 33003KT 03/03 A3039 RMK A01 T00330027  RH  096%=      5-min Rain = 0
KCO2 070523Z 34003KT 03/03 A3039 RMK A01 T00330027  RH  096%=      5-min Rain = 0
KCO2 070524Z 34003KT 03/03 A3039 RMK A01 T00330027  RH  096%=      5-min Rain = 0
KCO2 070525Z 34004KT 03/03 A3039 RMK A01 T00330027  RH  096%=      5-min Rain = 0
KCO2 070526Z 33004KT 03/03 A3039 RMK A01 T00330027  RH  096%=      5-min Rain = 0
KCO2 070527Z 33004KT 03/03 A3039 RMK A01 T00330027  RH  096%=      5-min Rain = 0
KCO2 070528Z 33004KT 03/03 A3039 RMK A01 T00330027  RH  096%=      5-min Rain = 0
KCO2 070529Z 33004KT 03/03 A3039 RMK A01 T00330027  RH  096%=      5-min Rain = 0
KCO2 070530Z 34004KT 03/03 A3039 RMK A01 T00330027  RH  096%=      5-min Rain = 0
KCO2 070531Z 34004KT 03/03 A3039 RMK A01 T00330027  RH  096%=      5-min Rain = 0
KCO2 070532Z 34004KT 03/03 A3039 RMK A01 T00330027  RH  096%=      5-min Rain = 0
KCO2 070533Z 35004KT 03/03 A3039 RMK A01 T00330027  RH  096%=      5-min Rain = 0
KCO2 070534Z 35003KT 03/03 A3039 RMK A01 T00330027  RH  096%=      5-min Rain = 0
KCO2 070535Z 35002KT 03/03 A3038 RMK A01 T00330027  RH  096%=      5-min Rain = 0
KCO2 070536Z 36002KT 03/03 A3038 RMK A01 T00330027  RH  096%=      5-min Rain = 0
KCO2 070537Z 35002KT 03/03 A3038 RMK A01 T00330027  RH  096%=      5-min Rain = 0
KCO2 070538Z 35003KT 03/03 A3038 RMK A01 T00330027  RH  096%=      5-min Rain = 0
KCO2 070539Z 35003KT 03/03 A3038 RMK A01 T00330027  RH  096%=      5-min Rain = 0
KCO2 070540Z 35003KT 03/03 A3039 RMK A01 T00330027  RH  096%=      5-min Rain = 0
KCO2 070541Z 34003KT 03/03 A3039 RMK A01 T00330027  RH  096%=      5-min Rain = 0
KCO2 070542Z 34003KT 03/03 A3039 RMK A01 T00330027  RH  096%=      5-min Rain = 0
KCO2 070543Z 34003KT 03/03 A3039 RMK A01 T00330027  RH  096%=      5-min Rain = 0
KCO2 070544Z 34003KT 03/03 A3039 RMK A01 T00330027  RH  096%=      5-min Rain = 0
KCO2 070545Z 34004KT 03/03 A3039 RMK A01 T00330027  RH  096%=      5-min Rain = 0
KCO2 070546Z 34004KT 03/03 A3039 RMK A01 T00330026  RH  096%=      5-min Rain = 0
KCO2 070547Z 34005KT 03/03 A3039 RMK A01 T00330026  RH  095%=      5-min Rain = 0
KCO2 070548Z 33005KT 03/03 A3039 RMK A01 T00330026  RH  095%=      5-min Rain = 0
KCO2 070549Z 34005KT 03/03 A3039 RMK A01 T00330026  RH  095%=      5-min Rain = 0
KCO2 070550Z 34006KT 03/03 A3039 RMK A01 T00330026  RH  095%=      5-min Rain = 0
KCO2 070551Z 34005KT 03/03 A3039 RMK A01 T00330026  RH  095%=      5-min Rain = 0
KCO2 070552Z 34005KT 03/03 A3039 RMK A01 T00330026  RH  095%=      5-min Rain = 0
KCO2 070553Z 34005KT 03/03 A3039 RMK A01 T00330026  RH  095%=      5-min Rain = 0
KCO2 070554Z 34005KT 03/03 A3039 RMK A01 T00330027  RH  095%=      5-min Rain = 0
KCO2 070555Z 35005KT 03/03 A3039 RMK A01 T00330027  RH  095%=      5-min Rain = 0
KCO2 070556Z 35004KT 03/03 A3039 RMK A01 T00330027  RH  095%=      5-min Rain = 0
KCO2 070557Z 34004KT 03/03 A3039 RMK A01 T00330027  RH  095%=      5-min Rain = 0
KCO2 070558Z 34004KT 03/03 A3039 RMK A01 T00330027  RH  095%=      5-min Rain = 0
KCO2 070559Z 34004KT 03/03 A3039 RMK A01 T00340027  RH  095%=      5-min Rain = 0

Page generated in 0.0338 seconds.